Time,TemperatureF,DewpointF,PressureIn,WindDirection,WindDirectionDegrees,WindSpeedMPH,WindSpeedGustMPH,Humidity,HourlyPrecipIn,Conditions,Clouds,dailyrainin,SoftwareType,DateUTC
2013-08-17 00:00:00,78.1,62.6,29.87,NW,315,6.0,14.0,59,0.00,,,0.00,WUHU216DAVISVP2,2013-08-17 07:00:00,
2013-08-17 00:01:00,78.0,63.2,29.87,NW,310,7.0,12.0,60,0.00,,,0.00,WUHU216DAVISVP2,2013-08-17 07:01:00,
2013-08-17 00:05:00,77.9,62.9,29.87,NW,315,6.0,14.0,60,0.00,,,0.00,WUHU216DAVISVP2,2013-08-17 07:05:00,
2013-08-17 00:06:00,77.8,63.0,29.87,WNW,289,6.0,12.0,60,0.00,,,0.00,WUHU216DAVISVP2,2013-08-17 07:06:00,
2013-08-17 00:10:00,77.7,62.7,29.87,NW,315,6.0,12.0,60,0.00,,,0.00,WUHU216DAVISVP2,2013-08-17 07:10:00,
2013-08-17 00:11:00,77.6,63.3,29.87,NW,308,6.0,11.0,61,0.00,,,0.00,WUHU216DAVISVP2,2013-08-17 07:11:00,
2013-08-17 00:15:00,77.5,63.0,29.86,NW,315,7.0,11.0,61,0.00,,,0.00,WUHU216DAVISVP2,2013-08-17 07:15:00,
2013-08-17 00:16:00,77.4,63.1,29.86,NW,310,8.0,11.0,61,0.00,,,0.00,WUHU216DAVISVP2,2013-08-17 07:16:00,
2013-08-17 00:20:00,77.3,62.8,29.87,WNW,293,6.0,11.0,61,0.00,,,0.00,WUHU216DAVISVP2,2013-08-17 07:20:00,
2013-08-17 00:21:00,77.2,62.9,29.87,West,281,7.0,10.0,61,0.00,,,0.00,WUHU216DAVISVP2,2013-08-17 07:21:00,
2013-08-17 00:25:00,77.1,62.6,29.87,WNW,293,6.0,13.0,61,0.00,,,0.00,WUHU216DAVISVP2,2013-08-17 07:25:00,
2013-08-17 00:26:00,77.0,62.7,29.87,NW,307,5.0,9.0,61,0.00,,,0.00,WUHU216DAVISVP2,2013-08-17 07:26:00,
2013-08-17 00:30:00,77.0,63.0,29.87,WNW,293,6.0,13.0,62,0.00,,,0.00,WUHU216DAVISVP2,2013-08-17 07:30:00,
2013-08-17 00:31:00,76.9,63.1,29.87,NW,311,4.0,9.0,62,0.00,,,0.00,WUHU216DAVISVP2,2013-08-17 07:31:00,
2013-08-17 00:35:00,76.8,62.8,29.87,WNW,293,5.0,13.0,62,0.00,,,0.00,WUHU216DAVISVP2,2013-08-17 07:35:00,
2013-08-17 00:36:00,76.7,62.9,29.86,WNW,303,5.0,11.0,62,0.00,,,0.00,WUHU216DAVISVP2,2013-08-17 07:36:00,
2013-08-17 00:40:00,76.6,62.6,29.86,NW,315,5.0,13.0,62,0.00,,,0.00,WUHU216DAVISVP2,2013-08-17 07:40:00,
2013-08-17 00:41:00,76.6,62.6,29.86,NW,304,7.0,11.0,62,0.00,,,0.00,WUHU216DAVISVP2,2013-08-17 07:41:00,
2013-08-17 00:45:00,76.5,62.5,29.86,WNW,293,5.0,11.0,62,0.00,,,0.00,WUHU216DAVISVP2,2013-08-17 07:45:00,
2013-08-17 00:46:00,76.4,62.4,29.87,WNW,302,5.0,9.0,62,0.00,,,0.00,WUHU216DAVISVP2,2013-08-17 07:46:00,
2013-08-17 00:50:00,76.4,62.4,29.87,NW,315,5.0,11.0,62,0.00,,,0.00,WUHU216DAVISVP2,2013-08-17 07:50:00,
2013-08-17 00:51:00,76.4,62.6,29.87,NW,317,5.0,9.0,62,0.00,,,0.00,WUHU216DAVISVP2,2013-08-17 07:51:00,
2013-08-17 00:55:00,76.3,62.3,29.87,NW,315,5.0,10.0,62,0.00,,,0.00,WUHU216DAVISVP2,2013-08-17 07:55:00,
2013-08-17 00:56:00,76.3,62.5,29.87,NW,313,2.0,8.0,62,0.00,,,0.00,WUHU216DAVISVP2,2013-08-17 07:56:00,
2013-08-17 01:00:00,76.2,62.2,29.86,NW,315,5.0,11.0,62,0.00,,,0.00,WUHU216DAVISVP2,2013-08-17 08:00:00,
2013-08-17 01:01:00,76.2,62.4,29.86,WNW,289,8.0,11.0,62,0.00,,,0.00,WUHU216DAVISVP2,2013-08-17 08:01:00,
2013-08-17 01:05:00,76.1,62.1,29.86,NW,315,5.0,11.0,62,0.00,,,0.00,WUHU216DAVISVP2,2013-08-17 08:05:00,
2013-08-17 01:06:00,76.0,62.3,29.86,NW,305,6.0,11.0,62,0.00,,,0.00,WUHU216DAVISVP2,2013-08-17 08:06:00,
2013-08-17 01:10:00,76.0,62.0,29.86,NW,315,5.0,11.0,62,0.00,,,0.00,WUHU216DAVISVP2,2013-08-17 08:10:00,
2013-08-17 01:11:00,75.9,62.2,29.86,NW,310,7.0,11.0,62,0.00,,,0.00,WUHU216DAVISVP2,2013-08-17 08:11:00,
2013-08-17 01:15:00,75.8,61.8,29.86,NW,315,5.0,11.0,62,0.00,,,0.00,WUHU216DAVISVP2,2013-08-17 08:15:00,
2013-08-17 01:16:00,75.8,62.1,29.86,WNW,298,0.0,8.0,62,0.00,,,0.00,WUHU216DAVISVP2,2013-08-17 08:16:00,
2013-08-17 01:20:00,75.7,61.8,29.86,WNW,293,4.0,11.0,62,0.00,,,0.00,WUHU216DAVISVP2,2013-08-17 08:20:00,
2013-08-17 01:21:00,75.6,61.9,29.86,NW,309,8.0,9.0,62,0.00,,,0.00,WUHU216DAVISVP2,2013-08-17 08:21:00,
2013-08-17 01:25:00,75.5,61.6,29.86,NW,315,5.0,9.0,62,0.00,,,0.00,WUHU216DAVISVP2,2013-08-17 08:25:00,
2013-08-17 01:26:00,75.5,61.8,29.86,NW,311,5.0,10.0,62,0.00,,,0.00,WUHU216DAVISVP2,2013-08-17 08:26:00,
2013-08-17 01:30:00,75.4,61.5,29.86,NW,315,5.0,11.0,62,0.00,,,0.00,WUHU216DAVISVP2,2013-08-17 08:30:00,
2013-08-17 01:31:00,75.3,61.6,29.86,NW,306,8.0,10.0,62,0.00,,,0.00,WUHU216DAVISVP2,2013-08-17 08:31:00,
2013-08-17 01:35:00,75.3,61.4,29.86,NW,315,4.0,11.0,62,0.00,,,0.00,WUHU216DAVISVP2,2013-08-17 08:35:00,
2013-08-17 01:36:00,75.2,61.5,29.86,NW,306,3.0,9.0,62,0.00,,,0.00,WUHU216DAVISVP2,2013-08-17 08:36:00,
2013-08-17 01:40:00,75.1,61.2,29.86,NW,315,4.0,11.0,62,0.00,,,0.00,WUHU216DAVISVP2,2013-08-17 08:40:00,
2013-08-17 01:41:00,75.0,61.3,29.86,NW,308,0.0,9.0,62,0.00,,,0.00,WUHU216DAVISVP2,2013-08-17 08:41:00,
2013-08-17 01:45:00,74.9,61.0,29.86,NW,315,5.0,10.0,62,0.00,,,0.00,WUHU216DAVISVP2,2013-08-17 08:45:00,
2013-08-17 01:46:00,74.8,61.6,29.86,NNW,337,5.0,9.0,63,0.00,,,0.00,WUHU216DAVISVP2,2013-08-17 08:46:00,
2013-08-17 01:50:00,74.8,61.4,29.86,NW,315,4.0,10.0,63,0.00,,,0.00,WUHU216DAVISVP2,2013-08-17 08:50:00,
2013-08-17 01:51:00,74.7,61.5,29.86,NW,313,1.0,7.0,63,0.00,,,0.00,WUHU216DAVISVP2,2013-08-17 08:51:00,
2013-08-17 01:55:00,74.6,61.2,29.86,NW,315,4.0,9.0,63,0.00,,,0.00,WUHU216DAVISVP2,2013-08-17 08:55:00,
2013-08-17 01:56:00,74.6,61.4,29.86,NW,305,4.0,7.0,63,0.00,,,0.00,WUHU216DAVISVP2,2013-08-17 08:56:00,
2013-08-17 02:00:00,74.5,61.1,29.86,NW,315,4.0,8.0,63,0.00,,,0.00,WUHU216DAVISVP2,2013-08-17 09:00:00,
2013-08-17 02:01:00,74.4,61.2,29.86,NW,323,3.0,7.0,63,0.00,,,0.00,WUHU216DAVISVP2,2013-08-17 09:01:00,
2013-08-17 02:05:00,74.3,60.9,29.86,NW,315,5.0,8.0,63,0.00,,,0.00,WUHU216DAVISVP2,2013-08-17 09:05:00,
2013-08-17 02:06:00,74.2,60.8,29.86,WNW,303,5.0,9.0,63,0.00,,,0.00,WUHU216DAVISVP2,2013-08-17 09:06:00,
2013-08-17 02:10:00,74.1,60.7,29.86,NW,315,4.0,9.0,63,0.00,,,0.00,WUHU216DAVISVP2,2013-08-17 09:10:00,
2013-08-17 02:11:00,74.0,61.0,29.86,NW,322,0.0,9.0,64,0.00,,,0.00,WUHU216DAVISVP2,2013-08-17 09:11:00,
2013-08-17 02:15:00,73.9,61.0,29.86,NW,315,4.0,9.0,64,0.00,,,0.00,WUHU216DAVISVP2,2013-08-17 09:15:00,
2013-08-17 02:16:00,73.8,60.9,29.86,NW,315,2.0,7.0,64,0.00,,,0.00,WUHU216DAVISVP2,2013-08-17 09:16:00,
2013-08-17 02:21:00,73.6,60.7,29.86,NW,317,4.0,7.0,64,0.00,,,0.00,WUHU216DAVISVP2,2013-08-17 09:21:00,
2013-08-17 02:25:00,73.5,60.6,29.86,NW,315,3.0,8.0,64,0.00,,,0.00,WUHU216DAVISVP2,2013-08-17 09:25:00,
2013-08-17 02:26:00,73.4,60.5,29.86,NW,315,6.0,7.0,64,0.00,,,0.00,WUHU216DAVISVP2,2013-08-17 09:26:00,
2013-08-17 02:30:00,73.3,60.4,29.86,NW,315,3.0,8.0,64,0.00,,,0.00,WUHU216DAVISVP2,2013-08-17 09:30:00,
2013-08-17 02:31:00,73.2,60.3,29.85,NW,319,6.0,7.0,64,0.00,,,0.00,WUHU216DAVISVP2,2013-08-17 09:31:00,
2013-08-17 02:35:00,73.1,60.2,29.85,NW,315,3.0,8.0,64,0.00,,,0.00,WUHU216DAVISVP2,2013-08-17 09:35:00,
2013-08-17 02:36:00,73.1,60.4,29.85,NW,319,5.0,8.0,64,0.00,,,0.00,WUHU216DAVISVP2,2013-08-17 09:36:00,
2013-08-17 02:40:00,73.0,60.1,29.85,NW,315,4.0,8.0,64,0.00,,,0.00,WUHU216DAVISVP2,2013-08-17 09:40:00,
2013-08-17 02:41:00,72.9,60.2,29.86,NW,317,2.0,8.0,64,0.00,,,0.00,WUHU216DAVISVP2,2013-08-17 09:41:00,
2013-08-17 02:45:00,72.9,60.0,29.86,NW,315,3.0,8.0,64,0.00,,,0.00,WUHU216DAVISVP2,2013-08-17 09:45:00,
2013-08-17 02:46:00,72.8,60.1,29.86,NW,311,5.0,8.0,64,0.00,,,0.00,WUHU216DAVISVP2,2013-08-17 09:46:00,
2013-08-17 02:50:00,72.8,59.9,29.86,NW,315,4.0,8.0,64,0.00,,,0.00,WUHU216DAVISVP2,2013-08-17 09:50:00,
2013-08-17 02:51:00,72.7,60.0,29.86,NW,323,3.0,8.0,64,0.00,,,0.00,WUHU216DAVISVP2,2013-08-17 09:51:00,
2013-08-17 02:55:00,72.7,59.8,29.86,NW,315,3.0,8.0,64,0.00,,,0.00,WUHU216DAVISVP2,2013-08-17 09:55:00,
2013-08-17 02:56:00,72.6,59.9,29.86,NW,311,0.0,7.0,64,0.00,,,0.00,WUHU216DAVISVP2,2013-08-17 09:56:00,
2013-08-17 03:00:00,72.6,59.7,29.86,NW,315,4.0,7.0,64,0.00,,,0.00,WUHU216DAVISVP2,2013-08-17 10:00:00,
2013-08-17 03:01:00,72.5,59.8,29.86,NW,318,3.0,7.0,64,0.00,,,0.00,WUHU216DAVISVP2,2013-08-17 10:01:00,
2013-08-17 03:05:00,72.4,59.5,29.86,NW,315,3.0,7.0,64,0.00,,,0.00,WUHU216DAVISVP2,2013-08-17 10:05:00,
2013-08-17 03:06:00,72.4,59.7,29.85,NW,313,2.0,6.0,64,0.00,,,0.00,WUHU216DAVISVP2,2013-08-17 10:06:00,
2013-08-17 03:10:00,72.3,59.4,29.85,NW,315,2.0,7.0,64,0.00,,,0.00,WUHU216DAVISVP2,2013-08-17 10:10:00,
2013-08-17 03:11:00,72.3,59.6,29.86,NW,317,0.0,6.0,64,0.00,,,0.00,WUHU216DAVISVP2,2013-08-17 10:11:00,
2013-08-17 03:15:00,72.2,59.3,29.86,NW,315,2.0,7.0,64,0.00,,,0.00,WUHU216DAVISVP2,2013-08-17 10:15:00,
2013-08-17 03:16:00,72.1,59.9,29.86,NNW,336,2.0,6.0,65,0.00,,,0.00,WUHU216DAVISVP2,2013-08-17 10:16:00,
2013-08-17 03:20:00,72.1,59.7,29.86,NNW,338,2.0,7.0,65,0.00,,,0.00,WUHU216DAVISVP2,2013-08-17 10:20:00,
2013-08-17 03:21:00,72.0,59.8,29.86,NNW,336,2.0,6.0,65,0.00,,,0.00,WUHU216DAVISVP2,2013-08-17 10:21:00,
2013-08-17 03:25:00,71.9,59.5,29.86,NNW,338,1.0,7.0,65,0.00,,,0.00,WUHU216DAVISVP2,2013-08-17 10:25:00,
2013-08-17 03:26:00,71.8,59.6,29.86,NNW,336,0.0,5.0,65,0.00,,,0.00,WUHU216DAVISVP2,2013-08-17 10:26:00,
2013-08-17 03:30:00,71.8,59.8,29.86,NNW,338,0.0,5.0,66,0.00,,,0.00,WUHU216DAVISVP2,2013-08-17 10:30:00,
2013-08-17 03:31:00,71.8,60.0,29.86,NNW,336,0.0,5.0,66,0.00,,,0.00,WUHU216DAVISVP2,2013-08-17 10:31:00,
2013-08-17 03:35:00,71.7,59.7,29.86,NNW,338,0.0,5.0,66,0.00,,,0.00,WUHU216DAVISVP2,2013-08-17 10:35:00,
2013-08-17 03:36:00,71.6,59.8,29.86,NNW,336,0.0,3.0,66,0.00,,,0.00,WUHU216DAVISVP2,2013-08-17 10:36:00,
2013-08-17 03:40:00,71.5,60.0,29.86,NNW,338,0.0,3.0,67,0.00,,,0.00,WUHU216DAVISVP2,2013-08-17 10:40:00,
2013-08-17 03:41:00,71.4,59.6,29.86,NNW,336,0.0,2.0,66,0.00,,,0.00,WUHU216DAVISVP2,2013-08-17 10:41:00,
2013-08-17 03:45:00,71.3,59.8,29.86,NNW,338,1.0,3.0,67,0.00,,,0.00,WUHU216DAVISVP2,2013-08-17 10:45:00,
2013-08-17 03:46:00,71.2,59.9,29.86,NNW,336,0.0,4.0,67,0.00,,,0.00,WUHU216DAVISVP2,2013-08-17 10:46:00,
2013-08-17 03:50:00,71.1,59.6,29.86,NNW,338,0.0,4.0,67,0.00,,,0.00,WUHU216DAVISVP2,2013-08-17 10:50:00,
2013-08-17 03:51:00,71.1,59.8,29.86,NNW,336,0.0,4.0,67,0.00,,,0.00,WUHU216DAVISVP2,2013-08-17 10:51:00,
2013-08-17 03:55:00,71.0,59.5,29.86,NNW,338,0.0,4.0,67,0.00,,,0.00,WUHU216DAVISVP2,2013-08-17 10:55:00,
2013-08-17 03:56:00,70.9,59.6,29.86,NNW,336,0.0,0.0,67,0.00,,,0.00,WUHU216DAVISVP2,2013-08-17 10:56:00,
2013-08-17 04:00:00,70.8,59.3,29.86,North,0,0.0,4.0,67,0.00,,,0.00,WUHU216DAVISVP2,2013-08-17 11:00:00,
2013-08-17 04:01:00,70.7,59.4,29.86,NNW,336,0.0,0.0,67,0.00,,,0.00,WUHU216DAVISVP2,2013-08-17 11:01:00,
2013-08-17 04:05:00,70.6,59.1,29.86,NNW,338,0.0,1.0,67,0.00,,,0.00,WUHU216DAVISVP2,2013-08-17 11:05:00,
2013-08-17 04:06:00,70.5,59.2,29.86,NNW,336,0.0,0.0,67,0.00,,,0.00,WUHU216DAVISVP2,2013-08-17 11:06:00,
2013-08-17 04:10:00,70.5,59.0,29.86,North,0,0.0,1.0,67,0.00,,,0.00,WUHU216DAVISVP2,2013-08-17 11:10:00,
2013-08-17 04:11:00,70.4,59.1,29.86,NNW,336,0.0,0.0,67,0.00,,,0.00,WUHU216DAVISVP2,2013-08-17 11:11:00,
2013-08-17 04:15:00,70.3,59.2,29.86,North,0,0.0,1.0,68,0.00,,,0.00,WUHU216DAVISVP2,2013-08-17 11:15:00,
2013-08-17 04:16:00,70.2,59.3,29.86,NNW,336,0.0,0.0,68,0.00,,,0.00,WUHU216DAVISVP2,2013-08-17 11:16:00,
2013-08-17 04:20:00,70.1,59.0,29.86,NNW,338,0.0,1.0,68,0.00,,,0.00,WUHU216DAVISVP2,2013-08-17 11:20:00,
2013-08-17 04:21:00,70.0,59.1,29.86,NNW,336,0.0,1.0,68,0.00,,,0.00,WUHU216DAVISVP2,2013-08-17 11:21:00,
2013-08-17 04:25:00,69.9,59.3,29.86,NNW,338,0.0,1.0,69,0.00,,,0.00,WUHU216DAVISVP2,2013-08-17 11:25:00,
2013-08-17 04:26:00,69.8,59.4,29.86,NNW,336,0.0,1.0,69,0.00,,,0.00,WUHU216DAVISVP2,2013-08-17 11:26:00,
2013-08-17 04:30:00,69.8,59.2,29.86,North,0,0.0,1.0,69,0.00,,,0.00,WUHU216DAVISVP2,2013-08-17 11:30:00,
2013-08-17 04:31:00,69.7,59.3,29.86,NNW,336,0.0,0.0,69,0.00,,,0.00,WUHU216DAVISVP2,2013-08-17 11:31:00,
2013-08-17 04:35:00,69.7,59.1,29.86,NNW,338,0.0,1.0,69,0.00,,,0.00,WUHU216DAVISVP2,2013-08-17 11:35:00,
2013-08-17 04:36:00,69.6,59.2,29.86,NNW,336,0.0,1.0,69,0.00,,,0.00,WUHU216DAVISVP2,2013-08-17 11:36:00,
2013-08-17 04:40:00,69.5,59.3,29.86,NNW,338,0.0,1.0,70,0.00,,,0.00,WUHU216DAVISVP2,2013-08-17 11:40:00,
2013-08-17 04:41:00,69.5,59.5,29.87,NNW,336,0.0,1.0,70,0.00,,,0.00,WUHU216DAVISVP2,2013-08-17 11:41:00,
2013-08-17 04:45:00,69.4,59.2,29.87,NNW,338,0.0,1.0,70,0.00,,,0.00,WUHU216DAVISVP2,2013-08-17 11:45:00,
2013-08-17 04:46:00,69.3,59.1,29.87,NNW,336,0.0,3.0,70,0.00,,,0.00,WUHU216DAVISVP2,2013-08-17 11:46:00,
2013-08-17 04:50:00,69.3,59.1,29.87,NNW,338,0.0,4.0,70,0.00,,,0.00,WUHU216DAVISVP2,2013-08-17 11:50:00,
2013-08-17 04:51:00,69.3,59.1,29.87,NNW,336,0.0,4.0,70,0.00,,,0.00,WUHU216DAVISVP2,2013-08-17 11:51:00,
2013-08-17 04:55:00,69.3,59.9,29.87,NNW,338,1.0,4.0,72,0.00,,,0.00,WUHU216DAVISVP2,2013-08-17 11:55:00,
2013-08-17 04:56:00,69.3,59.9,29.87,NNW,336,0.0,4.0,72,0.00,,,0.00,WUHU216DAVISVP2,2013-08-17 11:56:00,
2013-08-17 05:00:00,69.3,59.9,29.87,NNW,338,0.0,4.0,72,0.00,,,0.00,WUHU216DAVISVP2,2013-08-17 12:00:00,
2013-08-17 05:01:00,69.3,59.9,29.87,NNW,336,2.0,3.0,72,0.00,,,0.00,WUHU216DAVISVP2,2013-08-17 12:01:00,
2013-08-17 05:05:00,69.3,59.9,29.87,NNW,338,1.0,4.0,72,0.00,,,0.00,WUHU216DAVISVP2,2013-08-17 12:05:00,
2013-08-17 05:06:00,69.3,59.5,29.87,NNW,336,0.0,3.0,71,0.00,,,0.00,WUHU216DAVISVP2,2013-08-17 12:06:00,
2013-08-17 05:10:00,69.3,59.5,29.87,NNW,338,1.0,4.0,71,0.00,,,0.00,WUHU216DAVISVP2,2013-08-17 12:10:00,
2013-08-17 05:11:00,69.3,59.5,29.87,NNW,336,4.0,4.0,71,0.00,,,0.00,WUHU216DAVISVP2,2013-08-17 12:11:00,
2013-08-17 05:15:00,69.3,59.5,29.87,NNW,338,1.0,4.0,71,0.00,,,0.00,WUHU216DAVISVP2,2013-08-17 12:15:00,
2013-08-17 05:16:00,69.2,59.4,29.87,NNW,336,0.0,4.0,71,0.00,,,0.00,WUHU216DAVISVP2,2013-08-17 12:16:00,
2013-08-17 05:20:00,69.2,59.0,29.87,NNW,338,1.0,4.0,70,0.00,,,0.00,WUHU216DAVISVP2,2013-08-17 12:20:00,
2013-08-17 05:21:00,69.2,59.0,29.87,NNW,336,0.0,4.0,70,0.00,,,0.00,WUHU216DAVISVP2,2013-08-17 12:21:00,
2013-08-17 05:25:00,69.1,58.9,29.87,NNW,338,1.0,4.0,70,0.00,,,0.00,WUHU216DAVISVP2,2013-08-17 12:25:00,
2013-08-17 05:26:00,69.1,58.9,29.87,NNW,336,3.0,4.0,70,0.00,,,0.00,WUHU216DAVISVP2,2013-08-17 12:26:00,
2013-08-17 05:30:00,69.1,58.5,29.87,NNW,338,1.0,4.0,69,0.00,,,0.00,WUHU216DAVISVP2,2013-08-17 12:30:00,
2013-08-17 05:31:00,69.0,58.4,29.87,NNW,336,0.0,3.0,69,0.00,,,0.00,WUHU216DAVISVP2,2013-08-17 12:31:00,
2013-08-17 05:35:00,69.0,58.4,29.87,NNW,338,1.0,4.0,69,0.00,,,0.00,WUHU216DAVISVP2,2013-08-17 12:35:00,
2013-08-17 05:36:00,69.0,58.4,29.88,NNW,336,0.0,4.0,69,0.00,,,0.00,WUHU216DAVISVP2,2013-08-17 12:36:00,
2013-08-17 05:40:00,68.9,58.3,29.88,NNW,338,1.0,4.0,69,0.00,,,0.00,WUHU216DAVISVP2,2013-08-17 12:40:00,
2013-08-17 05:41:00,68.9,58.5,29.87,NNW,336,0.0,4.0,69,0.00,,,0.00,WUHU216DAVISVP2,2013-08-17 12:41:00,
2013-08-17 05:45:00,68.9,58.3,29.88,NNW,338,0.0,4.0,69,0.00,,,0.00,WUHU216DAVISVP2,2013-08-17 12:45:00,
2013-08-17 05:46:00,68.8,58.4,29.88,NNW,336,0.0,3.0,69,0.00,,,0.00,WUHU216DAVISVP2,2013-08-17 12:46:00,
2013-08-17 05:50:00,68.8,58.2,29.88,NNW,338,0.0,3.0,69,0.00,,,0.00,WUHU216DAVISVP2,2013-08-17 12:50:00,
2013-08-17 05:51:00,68.8,58.4,29.88,NNW,336,0.0,3.0,69,0.00,,,0.00,WUHU216DAVISVP2,2013-08-17 12:51:00,
2013-08-17 05:55:00,68.8,58.2,29.88,NNW,338,0.0,3.0,69,0.00,,,0.00,WUHU216DAVISVP2,2013-08-17 12:55:00,
2013-08-17 05:56:00,68.7,58.3,29.88,NNW,336,0.0,3.0,69,0.00,,,0.00,WUHU216DAVISVP2,2013-08-17 12:56:00,
2013-08-17 06:00:00,68.7,58.1,29.88,North,0,0.0,3.0,69,0.00,,,0.00,WUHU216DAVISVP2,2013-08-17 13:00:00,
2013-08-17 06:01:00,68.7,58.3,29.88,NNW,336,0.0,3.0,69,0.00,,,0.00,WUHU216DAVISVP2,2013-08-17 13:01:00,
2013-08-17 06:05:00,68.7,58.5,29.88,North,0,0.0,3.0,70,0.00,,,0.00,WUHU216DAVISVP2,2013-08-17 13:05:00,
2013-08-17 06:06:00,68.6,58.6,29.88,NNW,336,0.0,0.0,70,0.00,,,0.00,WUHU216DAVISVP2,2013-08-17 13:06:00,
2013-08-17 06:10:00,68.6,58.4,29.88,North,0,0.0,0.0,70,0.00,,,0.00,WUHU216DAVISVP2,2013-08-17 13:10:00,
2013-08-17 06:11:00,68.5,58.5,29.88,NNW,336,0.0,0.0,70,0.00,,,0.00,WUHU216DAVISVP2,2013-08-17 13:11:00,
2013-08-17 06:15:00,68.4,58.2,29.88,North,0,0.0,0.0,70,0.00,,,0.00,WUHU216DAVISVP2,2013-08-17 13:15:00,
2013-08-17 06:16:00,68.4,58.8,29.88,NNW,336,0.0,0.0,71,0.00,,,0.00,WUHU216DAVISVP2,2013-08-17 13:16:00,
2013-08-17 06:20:00,68.3,58.5,29.88,North,0,0.0,0.0,71,0.00,,,0.00,WUHU216DAVISVP2,2013-08-17 13:20:00,
2013-08-17 06:21:00,68.2,58.6,29.88,NNW,336,0.0,0.0,71,0.00,,,0.00,WUHU216DAVISVP2,2013-08-17 13:21:00,
2013-08-17 06:25:00,68.1,58.3,29.88,North,0,0.0,0.0,71,0.00,,,0.00,WUHU216DAVISVP2,2013-08-17 13:25:00,
2013-08-17 06:26:00,68.1,58.9,29.89,NNW,336,0.0,0.0,72,0.00,,,0.00,WUHU216DAVISVP2,2013-08-17 13:26:00,
2013-08-17 06:30:00,68.0,58.6,29.89,North,0,0.0,0.0,72,0.00,,,0.00,WUHU216DAVISVP2,2013-08-17 13:30:00,
2013-08-17 06:31:00,67.9,58.7,29.89,NNW,336,0.0,0.0,72,0.00,,,0.00,WUHU216DAVISVP2,2013-08-17 13:31:00,
2013-08-17 06:35:00,67.9,58.9,29.89,NNW,338,0.0,1.0,73,0.00,,,0.00,WUHU216DAVISVP2,2013-08-17 13:35:00,
2013-08-17 06:36:00,67.7,58.9,29.89,NNW,336,0.0,0.0,73,0.00,,,0.00,WUHU216DAVISVP2,2013-08-17 13:36:00,
2013-08-17 06:40:00,67.7,58.7,29.89,North,0,0.0,1.0,73,0.00,,,0.00,WUHU216DAVISVP2,2013-08-17 13:40:00,
2013-08-17 06:41:00,67.6,58.8,29.89,NNW,336,0.0,0.0,73,0.00,,,0.00,WUHU216DAVISVP2,2013-08-17 13:41:00,
2013-08-17 06:45:00,67.5,58.9,29.89,North,0,0.0,1.0,74,0.00,,,0.00,WUHU216DAVISVP2,2013-08-17 13:45:00,
2013-08-17 06:46:00,67.5,59.1,29.89,NNW,336,0.0,0.0,74,0.00,,,0.00,WUHU216DAVISVP2,2013-08-17 13:46:00,
2013-08-17 06:50:00,67.4,58.8,29.89,North,0,0.0,0.0,74,0.00,,,0.00,WUHU216DAVISVP2,2013-08-17 13:50:00,
2013-08-17 06:51:00,67.3,58.9,29.89,NNW,336,0.0,0.0,74,0.00,,,0.00,WUHU216DAVISVP2,2013-08-17 13:51:00,
2013-08-17 06:55:00,67.2,58.6,29.89,North,0,0.0,0.0,74,0.00,,,0.00,WUHU216DAVISVP2,2013-08-17 13:55:00,
2013-08-17 06:56:00,67.2,58.8,29.89,NNW,336,0.0,0.0,74,0.00,,,0.00,WUHU216DAVISVP2,2013-08-17 13:56:00,
2013-08-17 07:00:00,67.1,58.5,29.89,NNW,338,0.0,1.0,74,0.00,,,0.00,WUHU216DAVISVP2,2013-08-17 14:00:00,
2013-08-17 07:01:00,67.0,58.6,29.89,NNW,336,0.0,3.0,74,0.00,,,0.00,WUHU216DAVISVP2,2013-08-17 14:01:00,
2013-08-17 07:05:00,67.0,58.4,29.89,NNW,338,0.0,3.0,74,0.00,,,0.00,WUHU216DAVISVP2,2013-08-17 14:05:00,
2013-08-17 07:06:00,66.9,58.5,29.89,NNW,336,0.0,3.0,74,0.00,,,0.00,WUHU216DAVISVP2,2013-08-17 14:06:00,
2013-08-17 07:10:00,66.8,57.9,29.89,NNW,338,0.0,3.0,73,0.00,,,0.00,WUHU216DAVISVP2,2013-08-17 14:10:00,
2013-08-17 07:11:00,66.9,58.1,29.89,NNW,336,0.0,3.0,73,0.00,,,0.00,WUHU216DAVISVP2,2013-08-17 14:11:00,
2013-08-17 07:15:00,66.9,58.0,29.89,NNW,338,0.0,3.0,73,0.00,,,0.00,WUHU216DAVISVP2,2013-08-17 14:15:00,
2013-08-17 07:16:00,67.0,58.2,29.89,NNW,336,3.0,3.0,73,0.00,,,0.00,WUHU216DAVISVP2,2013-08-17 14:16:00,
2013-08-17 07:20:00,67.1,57.8,29.89,NNW,338,1.0,3.0,72,0.00,,,0.00,WUHU216DAVISVP2,2013-08-17 14:20:00,
2013-08-17 07:21:00,67.2,58.0,29.89,NNW,336,0.0,4.0,72,0.00,,,0.00,WUHU216DAVISVP2,2013-08-17 14:21:00,
2013-08-17 07:25:00,67.3,58.0,29.89,NNW,338,0.0,4.0,72,0.00,,,0.00,WUHU216DAVISVP2,2013-08-17 14:25:00,
2013-08-17 07:26:00,67.4,58.2,29.89,NNW,336,0.0,4.0,72,0.00,,,0.00,WUHU216DAVISVP2,2013-08-17 14:26:00,
2013-08-17 07:30:00,67.5,57.8,29.89,NNW,338,0.0,4.0,71,0.00,,,0.00,WUHU216DAVISVP2,2013-08-17 14:30:00,
2013-08-17 07:31:00,67.7,58.1,29.89,NNW,336,3.0,3.0,71,0.00,,,0.00,WUHU216DAVISVP2,2013-08-17 14:31:00,
2013-08-17 07:35:00,67.9,57.8,29.89,NNW,338,0.0,4.0,70,0.00,,,0.00,WUHU216DAVISVP2,2013-08-17 14:35:00,
2013-08-17 07:36:00,68.1,58.1,29.89,NNW,336,1.0,4.0,70,0.00,,,0.00,WUHU216DAVISVP2,2013-08-17 14:36:00,
2013-08-17 07:40:00,68.4,57.4,29.89,NNW,338,2.0,5.0,68,0.00,,,0.00,WUHU216DAVISVP2,2013-08-17 14:40:00,
2013-08-17 07:41:00,68.6,57.4,29.90,WNW,296,5.0,5.0,67,0.00,,,0.00,WUHU216DAVISVP2,2013-08-17 14:41:00,
2013-08-17 07:45:00,68.9,57.1,29.90,WNW,293,2.0,7.0,66,0.00,,,0.00,WUHU216DAVISVP2,2013-08-17 14:45:00,
2013-08-17 07:46:00,69.2,57.5,29.90,WNW,294,5.0,7.0,66,0.00,,,0.00,WUHU216DAVISVP2,2013-08-17 14:46:00,
2013-08-17 07:50:00,69.5,57.2,29.90,WNW,293,2.0,7.0,65,0.00,,,0.00,WUHU216DAVISVP2,2013-08-17 14:50:00,
2013-08-17 07:51:00,69.7,57.6,29.90,WNW,296,0.0,7.0,65,0.00,,,0.00,WUHU216DAVISVP2,2013-08-17 14:51:00,
2013-08-17 07:55:00,69.9,57.2,29.90,WNW,293,2.0,7.0,64,0.00,,,0.00,WUHU216DAVISVP2,2013-08-17 14:55:00,
2013-08-17 07:56:00,70.0,57.5,29.90,NW,310,0.0,6.0,64,0.00,,,0.00,WUHU216DAVISVP2,2013-08-17 14:56:00,
2013-08-17 08:00:00,70.2,57.4,29.90,NW,315,3.0,7.0,64,0.00,,,0.00,WUHU216DAVISVP2,2013-08-17 15:00:00,
2013-08-17 08:01:00,70.4,57.4,29.90,WNW,302,4.0,7.0,63,0.00,,,0.00,WUHU216DAVISVP2,2013-08-17 15:01:00,
2013-08-17 08:05:00,70.6,57.4,29.90,WNW,293,3.0,7.0,63,0.00,,,0.00,WUHU216DAVISVP2,2013-08-17 15:05:00,
2013-08-17 08:06:00,70.7,57.7,29.90,West,273,4.0,7.0,63,0.00,,,0.00,WUHU216DAVISVP2,2013-08-17 15:06:00,
2013-08-17 08:10:00,70.9,57.7,29.90,WNW,293,3.0,7.0,63,0.00,,,0.00,WUHU216DAVISVP2,2013-08-17 15:10:00,
2013-08-17 08:11:00,71.0,58.0,29.90,WNW,296,4.0,7.0,63,0.00,,,0.00,WUHU216DAVISVP2,2013-08-17 15:11:00,
2013-08-17 08:15:00,71.2,58.0,29.90,WNW,293,3.0,7.0,63,0.00,,,0.00,WUHU216DAVISVP2,2013-08-17 15:15:00,
2013-08-17 08:16:00,71.3,58.7,29.90,WNW,296,5.0,5.0,64,0.00,,,0.00,WUHU216DAVISVP2,2013-08-17 15:16:00,
2013-08-17 08:20:00,71.4,58.1,29.90,WNW,293,3.0,7.0,63,0.00,,,0.00,WUHU216DAVISVP2,2013-08-17 15:20:00,
2013-08-17 08:21:00,71.5,58.4,29.90,WNW,298,0.0,5.0,63,0.00,,,0.00,WUHU216DAVISVP2,2013-08-17 15:21:00,
2013-08-17 08:25:00,71.6,58.3,29.90,WNW,293,2.0,7.0,63,0.00,,,0.00,WUHU216DAVISVP2,2013-08-17 15:25:00,
2013-08-17 08:26:00,71.8,58.3,29.90,NW,318,4.0,7.0,62,0.00,,,0.00,WUHU216DAVISVP2,2013-08-17 15:26:00,
2013-08-17 08:30:00,72.1,57.9,29.90,NW,315,3.0,7.0,61,0.00,,,0.00,WUHU216DAVISVP2,2013-08-17 15:30:00,
2013-08-17 08:31:00,72.3,57.8,29.90,NW,309,3.0,7.0,60,0.00,,,0.00,WUHU216DAVISVP2,2013-08-17 15:31:00,
2013-08-17 08:35:00,72.6,58.4,29.90,NW,315,3.0,7.0,61,0.00,,,0.00,WUHU216DAVISVP2,2013-08-17 15:35:00,
2013-08-17 08:36:00,72.8,57.8,29.90,WNW,300,0.0,6.0,59,0.00,,,0.00,WUHU216DAVISVP2,2013-08-17 15:36:00,
2013-08-17 08:40:00,73.1,58.4,29.90,WNW,293,2.0,6.0,60,0.00,,,0.00,WUHU216DAVISVP2,2013-08-17 15:40:00,
2013-08-17 08:41:00,73.4,58.4,29.90,WNW,299,4.0,6.0,59,0.00,,,0.00,WUHU216DAVISVP2,2013-08-17 15:41:00,
2013-08-17 08:45:00,73.7,58.5,29.91,WNW,293,3.0,6.0,59,0.00,,,0.00,WUHU216DAVISVP2,2013-08-17 15:45:00,
2013-08-17 08:46:00,74.0,57.8,29.90,NW,319,5.0,7.0,57,0.00,,,0.00,WUHU216DAVISVP2,2013-08-17 15:46:00,
2013-08-17 08:50:00,74.4,58.2,29.90,NW,315,4.0,7.0,57,0.00,,,0.00,WUHU216DAVISVP2,2013-08-17 15:50:00,
2013-08-17 08:51:00,74.7,58.9,29.91,NW,316,1.0,7.0,58,0.00,,,0.00,WUHU216DAVISVP2,2013-08-17 15:51:00,
2013-08-17 08:55:00,75.0,59.2,29.91,NW,315,2.0,7.0,58,0.00,,,0.00,WUHU216DAVISVP2,2013-08-17 15:55:00,
2013-08-17 08:56:00,75.4,58.6,29.91,NW,304,6.0,6.0,56,0.00,,,0.00,WUHU216DAVISVP2,2013-08-17 15:56:00,
2013-08-17 09:00:00,75.7,57.9,29.91,NW,315,3.0,7.0,54,0.00,,,0.00,WUHU216DAVISVP2,2013-08-17 16:00:00,
2013-08-17 09:01:00,76.0,58.7,29.91,NW,323,5.0,6.0,55,0.00,,,0.00,WUHU216DAVISVP2,2013-08-17 16:01:00,
2013-08-17 09:05:00,76.3,57.4,29.91,NW,315,4.0,8.0,52,0.00,,,0.00,WUHU216DAVISVP2,2013-08-17 16:05:00,
2013-08-17 09:06:00,76.6,57.7,29.91,NW,321,1.0,8.0,52,0.00,,,0.00,WUHU216DAVISVP2,2013-08-17 16:06:00,
2013-08-17 09:10:00,76.9,57.9,29.91,NW,315,3.0,8.0,52,0.00,,,0.00,WUHU216DAVISVP2,2013-08-17 16:10:00,
2013-08-17 09:11:00,77.3,57.8,29.91,NW,315,1.0,8.0,51,0.00,,,0.00,WUHU216DAVISVP2,2013-08-17 16:11:00,
2013-08-17 09:15:00,77.6,57.5,29.91,NW,315,4.0,8.0,50,0.00,,,0.00,WUHU216DAVISVP2,2013-08-17 16:15:00,
2013-08-17 09:16:00,77.9,57.8,29.91,NW,305,6.0,8.0,50,0.00,,,0.00,WUHU216DAVISVP2,2013-08-17 16:16:00,
2013-08-17 09:20:00,78.2,58.0,29.90,NW,315,3.0,8.0,50,0.00,,,0.00,WUHU216DAVISVP2,2013-08-17 16:20:00,
2013-08-17 09:21:00,78.4,58.2,29.91,NNW,336,4.0,8.0,50,0.00,,,0.00,WUHU216DAVISVP2,2013-08-17 16:21:00,
2013-08-17 09:25:00,78.7,58.5,29.90,NNW,338,3.0,8.0,50,0.00,,,0.00,WUHU216DAVISVP2,2013-08-17 16:25:00,
2013-08-17 09:26:00,79.0,58.8,29.90,NNW,342,5.0,8.0,50,0.00,,,0.00,WUHU216DAVISVP2,2013-08-17 16:26:00,
2013-08-17 09:30:00,79.2,59.0,29.90,NNW,338,3.0,9.0,50,0.00,,,0.00,WUHU216DAVISVP2,2013-08-17 16:30:00,
2013-08-17 09:31:00,79.4,59.2,29.90,NNW,346,0.0,8.0,50,0.00,,,0.00,WUHU216DAVISVP2,2013-08-17 16:31:00,
2013-08-17 09:35:00,79.7,58.8,29.90,NNW,338,3.0,9.0,49,0.00,,,0.00,WUHU216DAVISVP2,2013-08-17 16:35:00,
2013-08-17 09:36:00,79.8,58.4,29.90,North,350,6.0,7.0,48,0.00,,,0.00,WUHU216DAVISVP2,2013-08-17 16:36:00,
2013-08-17 09:40:00,80.0,58.5,29.90,NNW,338,5.0,9.0,48,0.00,,,0.00,WUHU216DAVISVP2,2013-08-17 16:40:00,
2013-08-17 09:41:00,80.2,58.8,29.90,North,355,3.0,7.0,48,0.00,,,0.00,WUHU216DAVISVP2,2013-08-17 16:41:00,
2013-08-17 09:45:00,80.4,59.5,29.90,NNW,338,3.0,8.0,49,0.00,,,0.00,WUHU216DAVISVP2,2013-08-17 16:45:00,
2013-08-17 09:46:00,80.6,59.2,29.90,NNW,342,6.0,7.0,48,0.00,,,0.00,WUHU216DAVISVP2,2013-08-17 16:46:00,
2013-08-17 09:50:00,80.8,58.7,29.90,NNW,338,4.0,8.0,47,0.00,,,0.00,WUHU216DAVISVP2,2013-08-17 16:50:00,
2013-08-17 09:51:00,81.0,58.3,29.90,NNW,335,5.0,8.0,46,0.00,,,0.00,WUHU216DAVISVP2,2013-08-17 16:51:00,
2013-08-17 09:55:00,81.2,57.2,29.90,NNW,338,5.0,9.0,44,0.00,,,0.00,WUHU216DAVISVP2,2013-08-17 16:55:00,
2013-08-17 09:56:00,81.4,57.4,29.90,NW,326,5.0,9.0,44,0.00,,,0.00,WUHU216DAVISVP2,2013-08-17 16:56:00,
2013-08-17 10:00:00,81.6,56.9,29.90,NNW,338,5.0,9.0,43,0.00,,,0.00,WUHU216DAVISVP2,2013-08-17 17:00:00,
2013-08-17 10:01:00,81.8,57.8,29.90,NNW,334,6.0,9.0,44,0.00,,,0.00,WUHU216DAVISVP2,2013-08-17 17:01:00,
2013-08-17 10:05:00,82.0,57.9,29.90,NNW,338,6.0,9.0,44,0.00,,,0.00,WUHU216DAVISVP2,2013-08-17 17:05:00,
2013-08-17 10:06:00,82.1,57.4,29.90,North,351,5.0,9.0,43,0.00,,,0.00,WUHU216DAVISVP2,2013-08-17 17:06:00,
2013-08-17 10:10:00,82.3,57.6,29.90,NNW,338,5.0,10.0,43,0.00,,,0.00,WUHU216DAVISVP2,2013-08-17 17:10:00,
2013-08-17 10:11:00,82.6,57.8,29.90,NNW,327,4.0,9.0,43,0.00,,,0.00,WUHU216DAVISVP2,2013-08-17 17:11:00,
2013-08-17 10:15:00,82.8,57.4,29.90,NNW,338,4.0,10.0,42,0.00,,,0.00,WUHU216DAVISVP2,2013-08-17 17:15:00,
2013-08-17 10:16:00,83.0,57.5,29.90,NW,318,6.0,8.0,42,0.00,,,0.00,WUHU216DAVISVP2,2013-08-17 17:16:00,
2013-08-17 10:20:00,83.2,57.1,29.90,NNW,338,4.0,10.0,41,0.00,,,0.00,WUHU216DAVISVP2,2013-08-17 17:20:00,
2013-08-17 10:21:00,83.3,56.4,29.90,NNW,329,4.0,9.0,40,0.00,,,0.00,WUHU216DAVISVP2,2013-08-17 17:21:00,
2013-08-17 10:25:00,83.6,57.4,29.90,NW,315,3.0,9.0,41,0.00,,,0.00,WUHU216DAVISVP2,2013-08-17 17:25:00,
2013-08-17 10:26:00,83.8,58.2,29.90,NNW,331,5.0,9.0,42,0.00,,,0.00,WUHU216DAVISVP2,2013-08-17 17:26:00,
2013-08-17 10:30:00,84.0,55.7,29.90,NNW,338,4.0,9.0,38,0.00,,,0.00,WUHU216DAVISVP2,2013-08-17 17:30:00,
2013-08-17 10:31:00,84.3,55.8,29.90,North,355,5.0,8.0,38,0.00,,,0.00,WUHU216DAVISVP2,2013-08-17 17:31:00,
2013-08-17 10:35:00,84.5,54.6,29.90,NNW,338,5.0,9.0,36,0.00,,,0.00,WUHU216DAVISVP2,2013-08-17 17:35:00,
2013-08-17 10:36:00,84.8,54.8,29.90,NNW,345,5.0,9.0,36,0.00,,,0.00,WUHU216DAVISVP2,2013-08-17 17:36:00,
2013-08-17 10:40:00,85.0,55.1,29.90,NNW,338,5.0,9.0,36,0.00,,,0.00,WUHU216DAVISVP2,2013-08-17 17:40:00,
2013-08-17 10:41:00,85.3,55.2,29.90,North,355,6.0,9.0,36,0.00,,,0.00,WUHU216DAVISVP2,2013-08-17 17:41:00,
2013-08-17 10:45:00,85.5,55.5,29.90,NNW,338,5.0,9.0,36,0.00,,,0.00,WUHU216DAVISVP2,2013-08-17 17:45:00,
2013-08-17 10:46:00,85.7,54.8,29.90,North,5,7.0,9.0,35,0.00,,,0.00,WUHU216DAVISVP2,2013-08-17 17:46:00,
2013-08-17 10:50:00,85.9,54.3,29.90,NNW,338,5.0,9.0,34,0.00,,,0.00,WUHU216DAVISVP2,2013-08-17 17:50:00,
2013-08-17 10:51:00,86.1,54.3,29.90,North,349,0.0,9.0,34,0.00,,,0.00,WUHU216DAVISVP2,2013-08-17 17:51:00,
2013-08-17 10:55:00,86.3,55.4,29.89,NNW,338,3.0,9.0,35,0.00,,,0.00,WUHU216DAVISVP2,2013-08-17 17:55:00,
2013-08-17 10:56:00,86.5,53.9,29.89,North,349,7.0,10.0,33,0.00,,,0.00,WUHU216DAVISVP2,2013-08-17 17:56:00,
2013-08-17 11:00:00,86.6,52.4,29.89,NNW,338,6.0,10.0,31,0.00,,,0.00,WUHU216DAVISVP2,2013-08-17 18:00:00,
2013-08-17 11:01:00,86.8,53.3,29.89,NNW,343,6.0,10.0,32,0.00,,,0.00,WUHU216DAVISVP2,2013-08-17 18:01:00,
2013-08-17 11:05:00,86.9,52.6,29.89,North,0,5.0,10.0,31,0.00,,,0.00,WUHU216DAVISVP2,2013-08-17 18:05:00,
2013-08-17 11:06:00,87.1,53.5,29.89,North,355,6.0,10.0,32,0.00,,,0.00,WUHU216DAVISVP2,2013-08-17 18:06:00,
2013-08-17 11:10:00,87.3,53.8,29.89,NW,315,5.0,10.0,32,0.00,,,0.00,WUHU216DAVISVP2,2013-08-17 18:10:00,
2013-08-17 11:11:00,87.5,53.9,29.89,NNW,344,8.0,9.0,32,0.00,,,0.00,WUHU216DAVISVP2,2013-08-17 18:11:00,
2013-08-17 11:15:00,87.7,54.2,29.89,NNW,338,5.0,10.0,32,0.00,,,0.00,WUHU216DAVISVP2,2013-08-17 18:15:00,
2013-08-17 11:16:00,87.8,54.2,29.89,NW,315,1.0,9.0,32,0.00,,,0.00,WUHU216DAVISVP2,2013-08-17 18:16:00,
2013-08-17 11:20:00,88.1,53.7,29.89,NNW,338,4.0,10.0,31,0.00,,,0.00,WUHU216DAVISVP2,2013-08-17 18:20:00,
2013-08-17 11:21:00,88.2,52.7,29.89,NW,324,0.0,10.0,30,0.00,,,0.00,WUHU216DAVISVP2,2013-08-17 18:21:00,
2013-08-17 11:25:00,88.4,53.9,29.89,NNW,338,5.0,10.0,31,0.00,,,0.00,WUHU216DAVISVP2,2013-08-17 18:25:00,
2013-08-17 11:26:00,88.5,53.9,29.89,NNW,347,7.0,10.0,31,0.00,,,0.00,WUHU216DAVISVP2,2013-08-17 18:26:00,
2013-08-17 11:30:00,88.7,54.2,29.89,NNW,338,5.0,10.0,31,0.00,,,0.00,WUHU216DAVISVP2,2013-08-17 18:30:00,
2013-08-17 11:31:00,88.8,53.3,29.88,NNW,336,3.0,9.0,30,0.00,,,0.00,WUHU216DAVISVP2,2013-08-17 18:31:00,
2013-08-17 11:35:00,89.0,53.5,29.88,NNW,338,5.0,10.0,30,0.00,,,0.00,WUHU216DAVISVP2,2013-08-17 18:35:00,
2013-08-17 11:36:00,89.0,53.4,29.88,NW,314,7.0,9.0,30,0.00,,,0.00,WUHU216DAVISVP2,2013-08-17 18:36:00,
2013-08-17 11:40:00,89.2,53.7,29.88,NNW,338,4.0,10.0,30,0.00,,,0.00,WUHU216DAVISVP2,2013-08-17 18:40:00,
2013-08-17 11:41:00,89.3,52.8,29.88,NNW,346,4.0,9.0,29,0.00,,,0.00,WUHU216DAVISVP2,2013-08-17 18:41:00,
2013-08-17 11:45:00,89.4,54.8,29.88,NNW,338,5.0,10.0,31,0.00,,,0.00,WUHU216DAVISVP2,2013-08-17 18:45:00,
2013-08-17 11:46:00,89.5,52.9,29.88,NNE,22,0.0,9.0,29,0.00,,,0.00,WUHU216DAVISVP2,2013-08-17 18:46:00,
2013-08-17 11:50:00,89.6,54.1,29.88,NNW,338,5.0,9.0,30,0.00,,,0.00,WUHU216DAVISVP2,2013-08-17 18:50:00,
2013-08-17 11:51:00,89.7,54.1,29.88,NW,318,5.0,9.0,30,0.00,,,0.00,WUHU216DAVISVP2,2013-08-17 18:51:00,
2013-08-17 11:55:00,89.9,54.3,29.88,NW,315,3.0,9.0,30,0.00,,,0.00,WUHU216DAVISVP2,2013-08-17 18:55:00,
2013-08-17 11:56:00,90.1,53.6,29.88,NNW,335,5.0,9.0,29,0.00,,,0.00,WUHU216DAVISVP2,2013-08-17 18:56:00,
2013-08-17 12:00:00,90.2,54.6,29.88,NNW,338,4.0,9.0,30,0.00,,,0.00,WUHU216DAVISVP2,2013-08-17 19:00:00,
2013-08-17 12:01:00,90.2,54.6,29.87,NW,325,4.0,8.0,30,0.00,,,0.00,WUHU216DAVISVP2,2013-08-17 19:01:00,
2013-08-17 12:05:00,90.3,53.7,29.87,NNW,338,4.0,11.0,29,0.00,,,0.00,WUHU216DAVISVP2,2013-08-17 19:05:00,
2013-08-17 12:06:00,90.4,54.6,29.87,North,355,0.0,11.0,30,0.00,,,0.00,WUHU216DAVISVP2,2013-08-17 19:06:00,
2013-08-17 12:10:00,90.6,54.9,29.87,North,0,2.0,11.0,30,0.00,,,0.00,WUHU216DAVISVP2,2013-08-17 19:10:00,
2013-08-17 12:11:00,90.8,55.0,29.87,NNW,337,5.0,11.0,30,0.00,,,0.00,WUHU216DAVISVP2,2013-08-17 19:11:00,
2013-08-17 12:15:00,90.9,55.2,29.87,North,0,2.0,11.0,30,0.00,,,0.00,WUHU216DAVISVP2,2013-08-17 19:15:00,
2013-08-17 12:16:00,91.0,55.2,29.87,NNW,344,7.0,9.0,30,0.00,,,0.00,WUHU216DAVISVP2,2013-08-17 19:16:00,
2013-08-17 12:20:00,91.1,55.3,29.87,NW,315,4.0,9.0,30,0.00,,,0.00,WUHU216DAVISVP2,2013-08-17 19:20:00,
2013-08-17 12:21:00,91.2,55.3,29.87,NNE,18,3.0,9.0,30,0.00,,,0.00,WUHU216DAVISVP2,2013-08-17 19:21:00,
2013-08-17 12:25:00,91.4,56.5,29.86,NNW,338,3.0,9.0,31,0.00,,,0.00,WUHU216DAVISVP2,2013-08-17 19:25:00,
2013-08-17 12:26:00,91.6,54.8,29.86,NW,311,6.0,9.0,29,0.00,,,0.00,WUHU216DAVISVP2,2013-08-17 19:26:00,
2013-08-17 12:30:00,91.7,55.9,29.86,NW,315,4.0,9.0,30,0.00,,,0.00,WUHU216DAVISVP2,2013-08-17 19:30:00,
2013-08-17 12:31:00,91.8,55.9,29.86,North,355,4.0,9.0,30,0.00,,,0.00,WUHU216DAVISVP2,2013-08-17 19:31:00,
2013-08-17 12:35:00,91.9,55.1,29.86,NNW,338,4.0,9.0,29,0.00,,,0.00,WUHU216DAVISVP2,2013-08-17 19:35:00,
2013-08-17 12:36:00,92.0,56.9,29.86,North,355,3.0,8.0,31,0.00,,,0.00,WUHU216DAVISVP2,2013-08-17 19:36:00,
2013-08-17 12:40:00,92.2,56.3,29.86,North,0,2.0,9.0,30,0.00,,,0.00,WUHU216DAVISVP2,2013-08-17 19:40:00,
2013-08-17 12:41:00,92.5,55.5,29.86,NNW,328,6.0,8.0,29,0.00,,,0.00,WUHU216DAVISVP2,2013-08-17 19:41:00,
2013-08-17 12:45:00,92.6,55.7,29.86,NW,315,4.0,11.0,29,0.00,,,0.00,WUHU216DAVISVP2,2013-08-17 19:45:00,
2013-08-17 12:46:00,92.7,54.7,29.86,NNW,336,6.0,11.0,28,0.00,,,0.00,WUHU216DAVISVP2,2013-08-17 19:46:00,
2013-08-17 12:50:00,92.8,55.9,29.86,NW,315,2.0,11.0,29,0.00,,,0.00,WUHU216DAVISVP2,2013-08-17 19:50:00,
2013-08-17 12:51:00,92.9,54.9,29.86,North,5,2.0,11.0,28,0.00,,,0.00,WUHU216DAVISVP2,2013-08-17 19:51:00,
2013-08-17 12:55:00,93.1,54.2,29.85,NNW,338,4.0,11.0,27,0.00,,,0.00,WUHU216DAVISVP2,2013-08-17 19:55:00,
2013-08-17 12:56:00,93.2,53.2,29.86,NNW,336,0.0,9.0,26,0.00,,,0.00,WUHU216DAVISVP2,2013-08-17 19:56:00,
2013-08-17 13:00:00,93.3,54.3,29.85,NNW,338,3.0,10.0,27,0.00,,,0.00,WUHU216DAVISVP2,2013-08-17 20:00:00,
2013-08-17 13:01:00,93.4,53.3,29.85,North,355,5.0,9.0,26,0.00,,,0.00,WUHU216DAVISVP2,2013-08-17 20:01:00,
2013-08-17 13:05:00,93.5,55.5,29.85,NNW,338,3.0,10.0,28,0.00,,,0.00,WUHU216DAVISVP2,2013-08-17 20:05:00,
2013-08-17 13:06:00,93.6,54.6,29.85,NNW,329,3.0,7.0,27,0.00,,,0.00,WUHU216DAVISVP2,2013-08-17 20:06:00,
2013-08-17 13:10:00,93.8,53.7,29.85,NNE,23,2.0,9.0,26,0.00,,,0.00,WUHU216DAVISVP2,2013-08-17 20:10:00,
2013-08-17 13:11:00,94.0,54.9,29.84,NNW,342,4.0,8.0,27,0.00,,,0.00,WUHU216DAVISVP2,2013-08-17 20:11:00,
2013-08-17 13:15:00,94.1,55.0,29.84,NNW,338,3.0,8.0,27,0.00,,,0.00,WUHU216DAVISVP2,2013-08-17 20:15:00,
2013-08-17 13:16:00,94.2,55.0,29.84,NNE,20,4.0,8.0,27,0.00,,,0.00,WUHU216DAVISVP2,2013-08-17 20:16:00,
2013-08-17 13:20:00,94.4,54.2,29.84,NNE,23,3.0,9.0,26,0.00,,,0.00,WUHU216DAVISVP2,2013-08-17 20:20:00,
2013-08-17 13:21:00,94.5,55.3,29.84,NW,323,0.0,9.0,27,0.00,,,0.00,WUHU216DAVISVP2,2013-08-17 20:21:00,
2013-08-17 13:25:00,94.7,54.5,29.84,NW,315,3.0,9.0,26,0.00,,,0.00,WUHU216DAVISVP2,2013-08-17 20:25:00,
2013-08-17 13:26:00,94.7,54.4,29.84,NNE,16,1.0,9.0,26,0.00,,,0.00,WUHU216DAVISVP2,2013-08-17 20:26:00,
2013-08-17 13:30:00,95.0,54.7,29.84,NNW,338,2.0,9.0,26,0.00,,,0.00,WUHU216DAVISVP2,2013-08-17 20:30:00,
2013-08-17 13:31:00,95.1,54.8,29.84,North,349,7.0,9.0,26,0.00,,,0.00,WUHU216DAVISVP2,2013-08-17 20:31:00,
2013-08-17 13:35:00,95.2,54.9,29.83,NNW,338,3.0,9.0,26,0.00,,,0.00,WUHU216DAVISVP2,2013-08-17 20:35:00,
2013-08-17 13:36:00,95.3,55.0,29.83,NNE,17,1.0,9.0,26,0.00,,,0.00,WUHU216DAVISVP2,2013-08-17 20:36:00,
2013-08-17 13:40:00,95.4,54.0,29.83,NNW,338,4.0,9.0,25,0.00,,,0.00,WUHU216DAVISVP2,2013-08-17 20:40:00,
2013-08-17 13:41:00,95.5,55.2,29.83,NNW,334,5.0,9.0,26,0.00,,,0.00,WUHU216DAVISVP2,2013-08-17 20:41:00,
2013-08-17 13:45:00,95.6,54.2,29.83,NNW,338,4.0,9.0,25,0.00,,,0.00,WUHU216DAVISVP2,2013-08-17 20:45:00,
2013-08-17 13:46:00,95.7,54.2,29.83,NNE,24,3.0,9.0,25,0.00,,,0.00,WUHU216DAVISVP2,2013-08-17 20:46:00,
2013-08-17 13:50:00,95.7,52.0,29.83,NNW,338,4.0,9.0,23,0.00,,,0.00,WUHU216DAVISVP2,2013-08-17 20:50:00,
2013-08-17 13:51:00,95.7,52.0,29.83,NW,314,5.0,11.0,23,0.00,,,0.00,WUHU216DAVISVP2,2013-08-17 20:51:00,
2013-08-17 13:55:00,95.8,52.1,29.83,NW,315,5.0,11.0,23,0.00,,,0.00,WUHU216DAVISVP2,2013-08-17 20:55:00,
2013-08-17 13:56:00,95.9,52.1,29.83,NNW,342,0.0,11.0,23,0.00,,,0.00,WUHU216DAVISVP2,2013-08-17 20:56:00,
2013-08-17 14:00:00,96.3,52.5,29.83,North,350,8.0,11.0,23,0.00,,,0.00,WUHU216DAVISVP2,2013-08-17 21:00:00,
2013-08-17 14:05:00,96.4,51.4,29.83,NNW,338,6.0,11.0,22,0.00,,,0.00,WUHU216DAVISVP2,2013-08-17 21:05:00,
2013-08-17 14:06:00,96.5,52.6,29.83,NNW,344,5.0,11.0,23,0.00,,,0.00,WUHU216DAVISVP2,2013-08-17 21:06:00,
2013-08-17 14:10:00,96.7,51.6,29.82,NNW,338,3.0,11.0,22,0.00,,,0.00,WUHU216DAVISVP2,2013-08-17 21:10:00,
2013-08-17 14:11:00,96.7,51.6,29.82,North,355,8.0,11.0,22,0.00,,,0.00,WUHU216DAVISVP2,2013-08-17 21:11:00,
2013-08-17 14:15:00,96.8,51.7,29.82,NNW,345,9.0,11.0,22,0.00,,,0.00,WUHU216DAVISVP2,2013-08-17 21:15:00,
2013-08-17 14:20:00,97.1,53.1,29.82,NNW,334,7.0,11.0,23,0.00,,,0.00,WUHU216DAVISVP2,2013-08-17 21:20:00,
2013-08-17 14:25:00,97.4,52.2,29.82,NNW,333,5.0,9.0,22,0.00,,,0.00,WUHU216DAVISVP2,2013-08-17 21:25:00,
2013-08-17 14:30:00,97.6,52.4,29.81,NW,323,3.0,11.0,22,0.00,,,0.00,WUHU216DAVISVP2,2013-08-17 21:30:00,
2013-08-17 14:35:00,97.9,53.8,29.81,NNE,19,0.0,11.0,23,0.00,,,0.00,WUHU216DAVISVP2,2013-08-17 21:35:00,
2013-08-17 14:40:00,98.0,51.4,29.81,North,360,4.0,9.0,21,0.00,,,0.00,WUHU216DAVISVP2,2013-08-17 21:40:00,
2013-08-17 14:45:00,98.1,51.5,29.81,NNW,338,5.0,11.0,21,0.00,,,0.00,WUHU216DAVISVP2,2013-08-17 21:45:00,
2013-08-17 14:46:00,98.2,51.6,29.81,North,10,6.0,9.0,21,0.00,,,0.00,WUHU216DAVISVP2,2013-08-17 21:46:00,
2013-08-17 14:50:00,98.3,52.9,29.81,NNW,338,4.0,9.0,22,0.00,,,0.00,WUHU216DAVISVP2,2013-08-17 21:50:00,
2013-08-17 14:51:00,98.3,51.7,29.80,NW,319,5.0,8.0,21,0.00,,,0.00,WUHU216DAVISVP2,2013-08-17 21:51:00,
2013-08-17 14:55:00,98.4,53.0,29.80,NW,315,3.0,9.0,22,0.00,,,0.00,WUHU216DAVISVP2,2013-08-17 21:55:00,
2013-08-17 14:56:00,98.5,51.8,29.80,NNW,331,2.0,8.0,21,0.00,,,0.00,WUHU216DAVISVP2,2013-08-17 21:56:00,
2013-08-17 15:00:00,98.6,53.2,29.80,NNW,338,5.0,10.0,22,0.00,,,0.00,WUHU216DAVISVP2,2013-08-17 22:00:00,
2013-08-17 15:01:00,98.6,51.9,29.80,WNW,303,8.0,10.0,21,0.00,,,0.00,WUHU216DAVISVP2,2013-08-17 22:01:00,
2013-08-17 15:05:00,98.8,52.1,29.80,NNW,338,6.0,10.0,21,0.00,,,0.00,WUHU216DAVISVP2,2013-08-17 22:05:00,
2013-08-17 15:06:00,99.0,52.2,29.80,NNW,338,7.0,10.0,21,0.00,,,0.00,WUHU216DAVISVP2,2013-08-17 22:06:00,
2013-08-17 15:10:00,99.2,52.4,29.80,NNW,338,5.0,10.0,21,0.00,,,0.00,WUHU216DAVISVP2,2013-08-17 22:10:00,
2013-08-17 15:11:00,99.3,52.5,29.80,NNW,336,7.0,10.0,21,0.00,,,0.00,WUHU216DAVISVP2,2013-08-17 22:11:00,
2013-08-17 15:15:00,99.2,51.1,29.80,NW,315,5.0,10.0,20,0.00,,,0.00,WUHU216DAVISVP2,2013-08-17 22:15:00,
2013-08-17 15:16:00,99.3,51.2,29.80,North,11,1.0,9.0,20,0.00,,,0.00,WUHU216DAVISVP2,2013-08-17 22:16:00,
2013-08-17 15:20:00,99.4,51.2,29.80,NW,315,4.0,10.0,20,0.00,,,0.00,WUHU216DAVISVP2,2013-08-17 22:20:00,
2013-08-17 15:21:00,99.4,52.6,29.79,NW,323,0.0,10.0,21,0.00,,,0.00,WUHU216DAVISVP2,2013-08-17 22:21:00,
2013-08-17 15:25:00,99.6,52.7,29.79,NW,315,5.0,10.0,21,0.00,,,0.00,WUHU216DAVISVP2,2013-08-17 22:25:00,
2013-08-17 15:26:00,99.8,54.2,29.79,North,349,3.0,10.0,22,0.00,,,0.00,WUHU216DAVISVP2,2013-08-17 22:26:00,
2013-08-17 15:30:00,99.9,54.3,29.79,NNW,338,4.0,10.0,22,0.00,,,0.00,WUHU216DAVISVP2,2013-08-17 22:30:00,
2013-08-17 15:31:00,100.0,54.4,29.79,NW,325,7.0,10.0,22,0.00,,,0.00,WUHU216DAVISVP2,2013-08-17 22:31:00,
2013-08-17 15:35:00,100.1,53.1,29.79,NNW,338,5.0,10.0,21,0.00,,,0.00,WUHU216DAVISVP2,2013-08-17 22:35:00,
2013-08-17 15:36:00,100.1,51.8,29.79,NNW,331,10.0,10.0,20,0.00,,,0.00,WUHU216DAVISVP2,2013-08-17 22:36:00,
2013-08-17 15:40:00,100.0,53.1,29.79,NNW,338,7.0,11.0,21,0.00,,,0.00,WUHU216DAVISVP2,2013-08-17 22:40:00,
2013-08-17 15:41:00,100.0,53.1,29.78,North,360,5.0,11.0,21,0.00,,,0.00,WUHU216DAVISVP2,2013-08-17 22:41:00,
2013-08-17 15:45:00,100.1,53.1,29.78,NNW,338,6.0,11.0,21,0.00,,,0.00,WUHU216DAVISVP2,2013-08-17 22:45:00,
2013-08-17 15:46:00,100.1,53.2,29.78,NNW,330,6.0,10.0,21,0.00,,,0.00,WUHU216DAVISVP2,2013-08-17 22:46:00,
2013-08-17 15:50:00,100.1,53.1,29.78,NNW,338,6.0,11.0,21,0.00,,,0.00,WUHU216DAVISVP2,2013-08-17 22:50:00,
2013-08-17 15:51:00,100.2,53.3,29.78,NW,315,3.0,10.0,21,0.00,,,0.00,WUHU216DAVISVP2,2013-08-17 22:51:00,
2013-08-17 15:55:00,100.3,53.3,29.78,NW,315,5.0,11.0,21,0.00,,,0.00,WUHU216DAVISVP2,2013-08-17 22:55:00,
2013-08-17 15:56:00,100.1,51.8,29.78,NNW,333,5.0,11.0,20,0.00,,,0.00,WUHU216DAVISVP2,2013-08-17 22:56:00,
2013-08-17 16:00:00,99.9,51.7,29.77,NW,315,8.0,11.0,20,0.00,,,0.00,WUHU216DAVISVP2,2013-08-17 23:00:00,
2013-08-17 16:01:00,99.9,53.0,29.77,NNW,327,6.0,12.0,21,0.00,,,0.00,WUHU216DAVISVP2,2013-08-17 23:01:00,
2013-08-17 16:05:00,99.9,53.0,29.77,NW,315,7.0,12.0,21,0.00,,,0.00,WUHU216DAVISVP2,2013-08-17 23:05:00,
2013-08-17 16:06:00,99.9,53.0,29.77,North,355,7.0,12.0,21,0.00,,,0.00,WUHU216DAVISVP2,2013-08-17 23:06:00,
2013-08-17 16:10:00,99.9,53.0,29.77,NNW,338,6.0,12.0,21,0.00,,,0.00,WUHU216DAVISVP2,2013-08-17 23:10:00,
2013-08-17 16:11:00,100.0,54.3,29.77,NNW,334,3.0,11.0,22,0.00,,,0.00,WUHU216DAVISVP2,2013-08-17 23:11:00,
2013-08-17 16:15:00,100.1,55.6,29.77,NNW,338,5.0,12.0,23,0.00,,,0.00,WUHU216DAVISVP2,2013-08-17 23:15:00,
2013-08-17 16:16:00,100.3,55.8,29.77,NNE,13,4.0,11.0,23,0.00,,,0.00,WUHU216DAVISVP2,2013-08-17 23:16:00,
2013-08-17 16:20:00,100.3,53.3,29.77,NNW,338,6.0,11.0,21,0.00,,,0.00,WUHU216DAVISVP2,2013-08-17 23:20:00,
2013-08-17 16:21:00,100.2,54.5,29.77,North,355,8.0,10.0,22,0.00,,,0.00,WUHU216DAVISVP2,2013-08-17 23:21:00,
2013-08-17 16:25:00,100.1,54.4,29.77,NNW,338,7.0,12.0,22,0.00,,,0.00,WUHU216DAVISVP2,2013-08-17 23:25:00,
2013-08-17 16:26:00,100.1,54.4,29.77,NW,314,9.0,12.0,22,0.00,,,0.00,WUHU216DAVISVP2,2013-08-17 23:26:00,
2013-08-17 16:30:00,100.0,53.1,29.76,NNW,338,7.0,12.0,21,0.00,,,0.00,WUHU216DAVISVP2,2013-08-17 23:30:00,
2013-08-17 16:31:00,100.0,54.4,29.76,NNW,338,4.0,12.0,22,0.00,,,0.00,WUHU216DAVISVP2,2013-08-17 23:31:00,
2013-08-17 16:35:00,100.0,54.3,29.76,NNW,338,5.0,12.0,22,0.00,,,0.00,WUHU216DAVISVP2,2013-08-17 23:35:00,
2013-08-17 16:36:00,100.1,54.4,29.76,NNE,29,2.0,11.0,22,0.00,,,0.00,WUHU216DAVISVP2,2013-08-17 23:36:00,
2013-08-17 16:40:00,100.1,55.6,29.76,NW,315,6.0,11.0,23,0.00,,,0.00,WUHU216DAVISVP2,2013-08-17 23:40:00,
2013-08-17 16:41:00,100.0,55.6,29.76,NNW,339,8.0,10.0,23,0.00,,,0.00,WUHU216DAVISVP2,2013-08-17 23:41:00,
2013-08-17 16:45:00,99.8,55.4,29.76,NNW,338,5.0,10.0,23,0.00,,,0.00,WUHU216DAVISVP2,2013-08-17 23:45:00,
2013-08-17 16:46:00,99.8,55.4,29.76,NNW,329,7.0,10.0,23,0.00,,,0.00,WUHU216DAVISVP2,2013-08-17 23:46:00,
2013-08-17 16:50:00,99.8,56.6,29.76,NW,315,5.0,10.0,24,0.00,,,0.00,WUHU216DAVISVP2,2013-08-17 23:50:00,
2013-08-17 16:51:00,99.7,55.3,29.76,WNW,302,8.0,10.0,23,0.00,,,0.00,WUHU216DAVISVP2,2013-08-17 23:51:00,
2013-08-17 16:55:00,99.6,56.4,29.76,NW,315,6.0,11.0,24,0.00,,,0.00,WUHU216DAVISVP2,2013-08-17 23:55:00,
2013-08-17 16:56:00,99.5,52.7,29.76,NW,310,7.0,12.0,21,0.00,,,0.00,WUHU216DAVISVP2,2013-08-17 23:56:00,
2013-08-17 17:00:00,99.2,53.7,29.76,NW,315,7.0,12.0,22,0.00,,,0.00,WUHU216DAVISVP2,2013-08-18 00:00:00,
2013-08-17 17:01:00,99.1,54.8,29.76,WNW,300,8.0,12.0,23,0.00,,,0.00,WUHU216DAVISVP2,2013-08-18 00:01:00,
2013-08-17 17:05:00,99.0,54.7,29.76,NW,315,7.0,13.0,23,0.00,,,0.00,WUHU216DAVISVP2,2013-08-18 00:05:00,
2013-08-17 17:06:00,99.0,55.9,29.76,NW,305,10.0,12.0,24,0.00,,,0.00,WUHU216DAVISVP2,2013-08-18 00:06:00,
2013-08-17 17:10:00,98.9,55.8,29.75,NW,315,7.0,13.0,24,0.00,,,0.00,WUHU216DAVISVP2,2013-08-18 00:10:00,
2013-08-17 17:11:00,98.8,56.8,29.75,NW,317,9.0,13.0,25,0.00,,,0.00,WUHU216DAVISVP2,2013-08-18 00:11:00,
2013-08-17 17:15:00,98.7,55.6,29.75,NW,315,6.0,13.0,24,0.00,,,0.00,WUHU216DAVISVP2,2013-08-18 00:15:00,
2013-08-17 17:16:00,98.6,56.7,29.75,NW,319,11.0,13.0,25,0.00,,,0.00,WUHU216DAVISVP2,2013-08-18 00:16:00,
2013-08-17 17:20:00,98.4,55.4,29.75,NW,315,6.0,13.0,24,0.00,,,0.00,WUHU216DAVISVP2,2013-08-18 00:20:00,
2013-08-17 17:21:00,98.4,56.5,29.75,WNW,298,8.0,11.0,25,0.00,,,0.00,WUHU216DAVISVP2,2013-08-18 00:21:00,
2013-08-17 17:25:00,98.3,55.3,29.75,NW,315,6.0,13.0,24,0.00,,,0.00,WUHU216DAVISVP2,2013-08-18 00:25:00,
2013-08-17 17:26:00,98.3,57.5,29.75,NNW,329,7.0,11.0,26,0.00,,,0.00,WUHU216DAVISVP2,2013-08-18 00:26:00,
2013-08-17 17:30:00,98.2,55.2,29.75,NW,315,6.0,14.0,24,0.00,,,0.00,WUHU216DAVISVP2,2013-08-18 00:30:00,
2013-08-17 17:31:00,98.1,54.0,29.75,NW,309,9.0,11.0,23,0.00,,,0.00,WUHU216DAVISVP2,2013-08-18 00:31:00,
2013-08-17 17:35:00,97.9,53.8,29.76,NW,315,8.0,14.0,23,0.00,,,0.00,WUHU216DAVISVP2,2013-08-18 00:35:00,
2013-08-17 17:36:00,97.8,53.7,29.75,NW,323,6.0,11.0,23,0.00,,,0.00,WUHU216DAVISVP2,2013-08-18 00:36:00,
2013-08-17 17:40:00,97.7,53.6,29.75,NW,315,6.0,14.0,23,0.00,,,0.00,WUHU216DAVISVP2,2013-08-18 00:40:00,
2013-08-17 17:41:00,97.7,53.6,29.75,NW,315,8.0,11.0,23,0.00,,,0.00,WUHU216DAVISVP2,2013-08-18 00:41:00,
2013-08-17 17:45:00,97.7,53.6,29.75,NW,315,7.0,12.0,23,0.00,,,0.00,WUHU216DAVISVP2,2013-08-18 00:45:00,
2013-08-17 17:46:00,97.7,54.8,29.75,NNW,328,9.0,12.0,24,0.00,,,0.00,WUHU216DAVISVP2,2013-08-18 00:46:00,
2013-08-17 17:50:00,97.6,54.7,29.75,NNW,338,5.0,12.0,24,0.00,,,0.00,WUHU216DAVISVP2,2013-08-18 00:50:00,
2013-08-17 17:51:00,97.6,54.7,29.75,NNW,329,1.0,12.0,24,0.00,,,0.00,WUHU216DAVISVP2,2013-08-18 00:51:00,
2013-08-17 17:55:00,97.5,53.5,29.75,NNW,338,7.0,15.0,23,0.00,,,0.00,WUHU216DAVISVP2,2013-08-18 00:55:00,
2013-08-17 17:56:00,97.4,53.4,29.75,NW,317,7.0,13.0,23,0.00,,,0.00,WUHU216DAVISVP2,2013-08-18 00:56:00,
2013-08-17 18:00:00,97.4,52.2,29.75,NW,315,6.0,15.0,22,0.00,,,0.00,WUHU216DAVISVP2,2013-08-18 01:00:00,
2013-08-17 18:01:00,97.3,52.1,29.75,NNW,331,6.0,13.0,22,0.00,,,0.00,WUHU216DAVISVP2,2013-08-18 01:01:00,
2013-08-17 18:05:00,97.2,52.0,29.74,NW,315,7.0,15.0,22,0.00,,,0.00,WUHU216DAVISVP2,2013-08-18 01:05:00,
2013-08-17 18:06:00,97.0,51.9,29.74,North,355,5.0,10.0,22,0.00,,,0.00,WUHU216DAVISVP2,2013-08-18 01:06:00,
2013-08-17 18:10:00,97.0,51.9,29.74,NW,315,6.0,15.0,22,0.00,,,0.00,WUHU216DAVISVP2,2013-08-18 01:10:00,
2013-08-17 18:11:00,96.9,50.5,29.74,NNW,329,6.0,11.0,21,0.00,,,0.00,WUHU216DAVISVP2,2013-08-18 01:11:00,
2013-08-17 18:15:00,96.8,50.4,29.74,NW,315,7.0,12.0,21,0.00,,,0.00,WUHU216DAVISVP2,2013-08-18 01:15:00,
2013-08-17 18:16:00,96.7,49.1,29.74,NNW,340,1.0,12.0,20,0.00,,,0.00,WUHU216DAVISVP2,2013-08-18 01:16:00,
2013-08-17 18:20:00,96.6,49.0,29.74,NW,315,7.0,12.0,20,0.00,,,0.00,WUHU216DAVISVP2,2013-08-18 01:20:00,
2013-08-17 18:21:00,96.5,48.9,29.74,NW,309,6.0,12.0,20,0.00,,,0.00,WUHU216DAVISVP2,2013-08-18 01:21:00,
2013-08-17 18:25:00,96.4,48.8,29.74,NW,315,7.0,12.0,20,0.00,,,0.00,WUHU216DAVISVP2,2013-08-18 01:25:00,
2013-08-17 18:26:00,96.3,50.0,29.74,WNW,294,5.0,10.0,21,0.00,,,0.00,WUHU216DAVISVP2,2013-08-18 01:26:00,
2013-08-17 18:30:00,96.2,51.2,29.74,NW,315,6.0,12.0,22,0.00,,,0.00,WUHU216DAVISVP2,2013-08-18 01:30:00,
2013-08-17 18:31:00,96.2,51.2,29.74,NW,316,1.0,10.0,22,0.00,,,0.00,WUHU216DAVISVP2,2013-08-18 01:31:00,
2013-08-17 18:35:00,96.1,52.3,29.74,NW,315,4.0,12.0,23,0.00,,,0.00,WUHU216DAVISVP2,2013-08-18 01:35:00,
2013-08-17 18:36:00,96.0,52.2,29.74,WNW,298,7.0,11.0,23,0.00,,,0.00,WUHU216DAVISVP2,2013-08-18 01:36:00,
2013-08-17 18:40:00,96.0,52.2,29.75,NW,315,6.0,12.0,23,0.00,,,0.00,WUHU216DAVISVP2,2013-08-18 01:40:00,
2013-08-17 18:41:00,95.8,53.2,29.75,NW,304,7.0,11.0,24,0.00,,,0.00,WUHU216DAVISVP2,2013-08-18 01:41:00,
2013-08-17 18:45:00,95.7,53.1,29.74,NW,315,7.0,12.0,24,0.00,,,0.00,WUHU216DAVISVP2,2013-08-18 01:45:00,
2013-08-17 18:46:00,95.6,54.1,29.75,NW,318,8.0,11.0,25,0.00,,,0.00,WUHU216DAVISVP2,2013-08-18 01:46:00,
2013-08-17 18:50:00,95.4,54.0,29.75,NW,315,7.0,12.0,25,0.00,,,0.00,WUHU216DAVISVP2,2013-08-18 01:50:00,
2013-08-17 18:51:00,95.2,53.8,29.74,NW,309,8.0,11.0,25,0.00,,,0.00,WUHU216DAVISVP2,2013-08-18 01:51:00,
2013-08-17 18:55:00,95.0,53.7,29.75,NW,315,8.0,12.0,25,0.00,,,0.00,WUHU216DAVISVP2,2013-08-18 01:55:00,
2013-08-17 18:56:00,94.7,53.4,29.75,NW,316,7.0,11.0,25,0.00,,,0.00,WUHU216DAVISVP2,2013-08-18 01:56:00,
2013-08-17 19:00:00,94.5,53.2,29.75,NW,315,8.0,12.0,25,0.00,,,0.00,WUHU216DAVISVP2,2013-08-18 02:00:00,
2013-08-17 19:01:00,94.2,54.1,29.74,West,280,7.0,12.0,26,0.00,,,0.00,WUHU216DAVISVP2,2013-08-18 02:01:00,
2013-08-17 19:05:00,93.9,53.8,29.74,NW,315,7.0,12.0,26,0.00,,,0.00,WUHU216DAVISVP2,2013-08-18 02:05:00,
2013-08-17 19:06:00,93.7,53.6,29.74,NW,325,6.0,12.0,26,0.00,,,0.00,WUHU216DAVISVP2,2013-08-18 02:06:00,
2013-08-17 19:10:00,93.4,54.4,29.74,NW,315,7.0,13.0,27,0.00,,,0.00,WUHU216DAVISVP2,2013-08-18 02:10:00,
2013-08-17 19:11:00,92.9,54.0,29.74,NNW,327,0.0,13.0,27,0.00,,,0.00,WUHU216DAVISVP2,2013-08-18 02:11:00,
2013-08-17 19:15:00,92.7,54.8,29.74,NW,315,7.0,13.0,28,0.00,,,0.00,WUHU216DAVISVP2,2013-08-18 02:15:00,
2013-08-17 19:16:00,92.4,54.5,29.74,NW,306,5.0,13.0,28,0.00,,,0.00,WUHU216DAVISVP2,2013-08-18 02:16:00,
2013-08-17 19:20:00,92.1,54.3,29.74,WNW,293,7.0,13.0,28,0.00,,,0.00,WUHU216DAVISVP2,2013-08-18 02:20:00,
2013-08-17 19:21:00,91.8,54.9,29.74,NW,318,4.0,11.0,29,0.00,,,0.00,WUHU216DAVISVP2,2013-08-18 02:21:00,
2013-08-17 19:25:00,91.5,54.8,29.74,WNW,293,6.0,13.0,29,0.00,,,0.00,WUHU216DAVISVP2,2013-08-18 02:25:00,
2013-08-17 19:26:00,91.2,55.3,29.75,NW,310,7.0,10.0,30,0.00,,,0.00,WUHU216DAVISVP2,2013-08-18 02:26:00,
2013-08-17 19:30:00,90.9,55.2,29.75,NW,315,7.0,12.0,30,0.00,,,0.00,WUHU216DAVISVP2,2013-08-18 02:30:00,
2013-08-17 19:31:00,90.6,55.7,29.75,WNW,296,8.0,11.0,31,0.00,,,0.00,WUHU216DAVISVP2,2013-08-18 02:31:00,
2013-08-17 19:35:00,90.4,55.6,29.75,NW,315,7.0,12.0,31,0.00,,,0.00,WUHU216DAVISVP2,2013-08-18 02:35:00,
2013-08-17 19:36:00,90.1,55.3,29.75,NW,306,5.0,11.0,31,0.00,,,0.00,WUHU216DAVISVP2,2013-08-18 02:36:00,
2013-08-17 19:40:00,89.9,55.2,29.75,NW,315,6.0,12.0,31,0.00,,,0.00,WUHU216DAVISVP2,2013-08-18 02:40:00,
2013-08-17 19:41:00,89.7,55.8,29.75,NW,306,7.0,11.0,32,0.00,,,0.00,WUHU216DAVISVP2,2013-08-18 02:41:00,
2013-08-17 19:45:00,89.5,55.7,29.75,NW,315,6.0,12.0,32,0.00,,,0.00,WUHU216DAVISVP2,2013-08-18 02:45:00,
2013-08-17 19:46:00,89.2,56.2,29.75,WNW,299,5.0,12.0,33,0.00,,,0.00,WUHU216DAVISVP2,2013-08-18 02:46:00,
2013-08-17 19:50:00,89.1,56.2,29.75,NW,315,6.0,14.0,33,0.00,,,0.00,WUHU216DAVISVP2,2013-08-18 02:50:00,
2013-08-17 19:51:00,88.8,55.9,29.75,NW,306,3.0,14.0,33,0.00,,,0.00,WUHU216DAVISVP2,2013-08-18 02:51:00,
2013-08-17 19:55:00,88.7,56.7,29.75,NW,315,6.0,14.0,34,0.00,,,0.00,WUHU216DAVISVP2,2013-08-18 02:55:00,
2013-08-17 19:56:00,88.4,56.5,29.75,West,281,5.0,14.0,34,0.00,,,0.00,WUHU216DAVISVP2,2013-08-18 02:56:00,
2013-08-17 20:00:00,88.2,57.1,29.75,WNW,293,5.0,14.0,35,0.00,,,0.00,WUHU216DAVISVP2,2013-08-18 03:00:00,
2013-08-17 20:01:00,87.9,56.8,29.75,WNW,302,5.0,9.0,35,0.00,,,0.00,WUHU216DAVISVP2,2013-08-18 03:01:00,
2013-08-17 20:05:00,87.7,56.7,29.75,WNW,293,5.0,12.0,35,0.00,,,0.00,WUHU216DAVISVP2,2013-08-18 03:05:00,
2013-08-17 20:06:00,87.5,57.3,29.75,WNW,296,8.0,9.0,36,0.00,,,0.00,WUHU216DAVISVP2,2013-08-18 03:06:00,
2013-08-17 20:10:00,87.2,57.0,29.75,WNW,293,5.0,10.0,36,0.00,,,0.00,WUHU216DAVISVP2,2013-08-18 03:10:00,
2013-08-17 20:11:00,87.0,57.6,29.75,WNW,302,5.0,9.0,37,0.00,,,0.00,WUHU216DAVISVP2,2013-08-18 03:11:00,
2013-08-17 20:15:00,86.8,57.4,29.75,WNW,293,5.0,10.0,37,0.00,,,0.00,WUHU216DAVISVP2,2013-08-18 03:15:00,
2013-08-17 20:16:00,86.5,57.1,29.75,NW,310,6.0,9.0,37,0.00,,,0.00,WUHU216DAVISVP2,2013-08-18 03:16:00,
2013-08-17 20:20:00,86.4,57.8,29.75,WNW,293,6.0,9.0,38,0.00,,,0.00,WUHU216DAVISVP2,2013-08-18 03:20:00,
2013-08-17 20:21:00,86.2,57.5,29.75,WNW,302,6.0,8.0,38,0.00,,,0.00,WUHU216DAVISVP2,2013-08-18 03:21:00,
2013-08-17 20:25:00,86.0,58.2,29.75,WNW,293,6.0,9.0,39,0.00,,,0.00,WUHU216DAVISVP2,2013-08-18 03:25:00,
2013-08-17 20:26:00,85.8,57.9,29.75,NW,305,8.0,9.0,39,0.00,,,0.00,WUHU216DAVISVP2,2013-08-18 03:26:00,
2013-08-17 20:30:00,85.6,57.8,29.75,NW,315,5.0,9.0,39,0.00,,,0.00,WUHU216DAVISVP2,2013-08-18 03:30:00,
2013-08-17 20:31:00,85.5,58.4,29.76,WNW,295,7.0,10.0,40,0.00,,,0.00,WUHU216DAVISVP2,2013-08-18 03:31:00,
2013-08-17 20:35:00,85.3,58.2,29.76,NW,315,6.0,11.0,40,0.00,,,0.00,WUHU216DAVISVP2,2013-08-18 03:35:00,
2013-08-17 20:36:00,85.1,58.0,29.76,NW,306,7.0,10.0,40,0.00,,,0.00,WUHU216DAVISVP2,2013-08-18 03:36:00,
2013-08-17 20:40:00,85.0,58.0,29.76,NW,315,6.0,11.0,40,0.00,,,0.00,WUHU216DAVISVP2,2013-08-18 03:40:00,
2013-08-17 20:41:00,84.8,57.0,29.76,WNW,303,5.0,10.0,39,0.00,,,0.00,WUHU216DAVISVP2,2013-08-18 03:41:00,
2013-08-17 20:45:00,84.7,57.0,29.76,WNW,293,6.0,11.0,39,0.00,,,0.00,WUHU216DAVISVP2,2013-08-18 03:45:00,
2013-08-17 20:46:00,84.6,57.6,29.76,WNW,297,6.0,10.0,40,0.00,,,0.00,WUHU216DAVISVP2,2013-08-18 03:46:00,
2013-08-17 20:50:00,84.5,57.5,29.76,WNW,293,5.0,10.0,40,0.00,,,0.00,WUHU216DAVISVP2,2013-08-18 03:50:00,
2013-08-17 20:51:00,84.4,57.4,29.77,NNW,328,3.0,9.0,40,0.00,,,0.00,WUHU216DAVISVP2,2013-08-18 03:51:00,
2013-08-17 20:55:00,84.2,57.3,29.77,WNW,293,5.0,10.0,40,0.00,,,0.00,WUHU216DAVISVP2,2013-08-18 03:55:00,
2013-08-17 20:56:00,84.1,57.8,29.77,NW,304,8.0,11.0,41,0.00,,,0.00,WUHU216DAVISVP2,2013-08-18 03:56:00,
2013-08-17 21:00:00,84.0,57.8,29.77,WNW,293,6.0,11.0,41,0.00,,,0.00,WUHU216DAVISVP2,2013-08-18 04:00:00,
2013-08-17 21:01:00,83.9,57.6,29.77,NNW,327,7.0,11.0,41,0.00,,,0.00,WUHU216DAVISVP2,2013-08-18 04:01:00,
2013-08-17 21:05:00,83.7,58.2,29.77,WNW,293,6.0,11.0,42,0.00,,,0.00,WUHU216DAVISVP2,2013-08-18 04:05:00,
2013-08-17 21:06:00,83.5,58.0,29.77,WNW,294,7.0,11.0,42,0.00,,,0.00,WUHU216DAVISVP2,2013-08-18 04:06:00,
2013-08-17 21:10:00,83.4,58.6,29.77,WNW,293,6.0,11.0,43,0.00,,,0.00,WUHU216DAVISVP2,2013-08-18 04:10:00,
2013-08-17 21:11:00,83.2,58.4,29.77,WNW,286,13.0,13.0,43,0.00,,,0.00,WUHU216DAVISVP2,2013-08-18 04:11:00,
2013-08-17 21:15:00,83.0,58.2,29.78,NW,315,7.0,13.0,43,0.00,,,0.00,WUHU216DAVISVP2,2013-08-18 04:15:00,
2013-08-17 21:16:00,82.9,58.8,29.78,NW,316,8.0,13.0,44,0.00,,,0.00,WUHU216DAVISVP2,2013-08-18 04:16:00,
2013-08-17 21:20:00,82.7,58.6,29.78,WNW,293,7.0,13.0,44,0.00,,,0.00,WUHU216DAVISVP2,2013-08-18 04:20:00,
2013-08-17 21:21:00,82.6,58.5,29.78,WNW,288,5.0,13.0,44,0.00,,,0.00,WUHU216DAVISVP2,2013-08-18 04:21:00,
2013-08-17 21:25:00,82.5,59.0,29.78,WNW,293,6.0,13.0,45,0.00,,,0.00,WUHU216DAVISVP2,2013-08-18 04:25:00,
2013-08-17 21:26:00,82.3,58.9,29.78,WNW,302,11.0,11.0,45,0.00,,,0.00,WUHU216DAVISVP2,2013-08-18 04:26:00,
2013-08-17 21:30:00,82.1,58.7,29.78,WNW,293,6.0,12.0,45,0.00,,,0.00,WUHU216DAVISVP2,2013-08-18 04:30:00,
2013-08-17 21:31:00,82.0,59.2,29.78,WNW,290,7.0,15.0,46,0.00,,,0.00,WUHU216DAVISVP2,2013-08-18 04:31:00,
2013-08-17 21:35:00,81.8,59.0,29.78,WNW,293,7.0,15.0,46,0.00,,,0.00,WUHU216DAVISVP2,2013-08-18 04:35:00,
2013-08-17 21:36:00,81.6,58.9,29.78,WNW,298,9.0,15.0,46,0.00,,,0.00,WUHU216DAVISVP2,2013-08-18 04:36:00,
2013-08-17 21:40:00,81.4,58.6,29.78,NW,315,8.0,16.0,46,0.00,,,0.00,WUHU216DAVISVP2,2013-08-18 04:40:00,
2013-08-17 21:41:00,81.3,58.6,29.79,NW,304,7.0,15.0,46,0.00,,,0.00,WUHU216DAVISVP2,2013-08-18 04:41:00,
2013-08-17 21:45:00,81.2,58.5,29.79,NW,315,8.0,16.0,46,0.00,,,0.00,WUHU216DAVISVP2,2013-08-18 04:45:00,
2013-08-17 21:46:00,81.1,58.4,29.79,WNW,300,7.0,13.0,46,0.00,,,0.00,WUHU216DAVISVP2,2013-08-18 04:46:00,
2013-08-17 21:50:00,81.0,58.3,29.79,WNW,293,7.0,16.0,46,0.00,,,0.00,WUHU216DAVISVP2,2013-08-18 04:50:00,
2013-08-17 21:51:00,80.9,58.2,29.79,NW,307,10.0,13.0,46,0.00,,,0.00,WUHU216DAVISVP2,2013-08-18 04:51:00,
2013-08-17 21:55:00,80.8,58.1,29.79,NW,315,7.0,13.0,46,0.00,,,0.00,WUHU216DAVISVP2,2013-08-18 04:55:00,
2013-08-17 21:56:00,80.7,58.0,29.79,WNW,298,10.0,13.0,46,0.00,,,0.00,WUHU216DAVISVP2,2013-08-18 04:56:00,
2013-08-17 22:00:00,80.7,58.0,29.79,NW,315,8.0,13.0,46,0.00,,,0.00,WUHU216DAVISVP2,2013-08-18 05:00:00,
2013-08-17 22:01:00,80.6,57.9,29.79,WNW,296,12.0,13.0,46,0.00,,,0.00,WUHU216DAVISVP2,2013-08-18 05:01:00,
2013-08-17 22:05:00,80.5,57.8,29.79,NW,315,8.0,16.0,46,0.00,,,0.00,WUHU216DAVISVP2,2013-08-18 05:05:00,
2013-08-17 22:06:00,80.5,57.9,29.79,WNW,300,7.0,16.0,46,0.00,,,0.00,WUHU216DAVISVP2,2013-08-18 05:06:00,
2013-08-17 22:10:00,80.4,57.7,29.79,NW,315,7.0,16.0,46,0.00,,,0.00,WUHU216DAVISVP2,2013-08-18 05:10:00,
2013-08-17 22:11:00,80.3,57.7,29.79,WNW,293,7.0,16.0,46,0.00,,,0.00,WUHU216DAVISVP2,2013-08-18 05:11:00,
2013-08-17 22:15:00,80.3,57.6,29.79,NW,315,9.0,16.0,46,0.00,,,0.00,WUHU216DAVISVP2,2013-08-18 05:15:00,
2013-08-17 22:16:00,80.2,57.5,29.79,NW,318,6.0,14.0,46,0.00,,,0.00,WUHU216DAVISVP2,2013-08-18 05:16:00,
2013-08-17 22:20:00,80.1,57.5,29.79,NW,315,7.0,15.0,46,0.00,,,0.00,WUHU216DAVISVP2,2013-08-18 05:20:00,
2013-08-17 22:21:00,80.1,57.5,29.79,NW,310,9.0,14.0,46,0.00,,,0.00,WUHU216DAVISVP2,2013-08-18 05:21:00,
2013-08-17 22:25:00,80.0,57.4,29.79,NW,315,8.0,15.0,46,0.00,,,0.00,WUHU216DAVISVP2,2013-08-18 05:25:00,
2013-08-17 22:26:00,80.0,57.4,29.79,NW,314,6.0,13.0,46,0.00,,,0.00,WUHU216DAVISVP2,2013-08-18 05:26:00,
2013-08-17 22:30:00,79.9,57.3,29.79,NW,315,7.0,13.0,46,0.00,,,0.00,WUHU216DAVISVP2,2013-08-18 05:30:00,
2013-08-17 22:31:00,79.9,57.3,29.79,WNW,302,10.0,13.0,46,0.00,,,0.00,WUHU216DAVISVP2,2013-08-18 05:31:00,
2013-08-17 22:35:00,79.9,57.3,29.79,NW,315,8.0,13.0,46,0.00,,,0.00,WUHU216DAVISVP2,2013-08-18 05:35:00,
2013-08-17 22:36:00,79.8,57.2,29.79,NW,323,6.0,15.0,46,0.00,,,0.00,WUHU216DAVISVP2,2013-08-18 05:36:00,
2013-08-17 22:40:00,79.8,57.2,29.79,NW,315,9.0,15.0,46,0.00,,,0.00,WUHU216DAVISVP2,2013-08-18 05:40:00,
2013-08-17 22:41:00,79.6,57.0,29.80,NW,319,6.0,15.0,46,0.00,,,0.00,WUHU216DAVISVP2,2013-08-18 05:41:00,
2013-08-17 22:45:00,79.6,57.0,29.80,NW,315,7.0,15.0,46,0.00,,,0.00,WUHU216DAVISVP2,2013-08-18 05:45:00,
2013-08-17 22:46:00,79.5,56.9,29.80,NW,309,5.0,12.0,46,0.00,,,0.00,WUHU216DAVISVP2,2013-08-18 05:46:00,
2013-08-17 22:50:00,79.4,56.8,29.80,NW,315,7.0,15.0,46,0.00,,,0.00,WUHU216DAVISVP2,2013-08-18 05:50:00,
2013-08-17 22:51:00,79.4,56.9,29.80,WNW,302,5.0,13.0,46,0.00,,,0.00,WUHU216DAVISVP2,2013-08-18 05:51:00,
2013-08-17 22:55:00,79.3,56.7,29.80,NW,315,6.0,13.0,46,0.00,,,0.00,WUHU216DAVISVP2,2013-08-18 05:55:00,
2013-08-17 22:56:00,79.2,56.7,29.80,NW,305,8.0,13.0,46,0.00,,,0.00,WUHU216DAVISVP2,2013-08-18 05:56:00,
2013-08-17 23:00:00,79.2,56.6,29.80,NW,315,6.0,13.0,46,0.00,,,0.00,WUHU216DAVISVP2,2013-08-18 06:00:00,
2013-08-17 23:01:00,79.2,56.7,29.80,NW,324,6.0,13.0,46,0.00,,,0.00,WUHU216DAVISVP2,2013-08-18 06:01:00,
2013-08-17 23:05:00,79.1,56.5,29.80,NW,315,6.0,13.0,46,0.00,,,0.00,WUHU216DAVISVP2,2013-08-18 06:05:00,
2013-08-17 23:06:00,79.1,56.6,29.80,NW,326,7.0,12.0,46,0.00,,,0.00,WUHU216DAVISVP2,2013-08-18 06:06:00,
2013-08-17 23:10:00,79.0,56.5,29.80,NW,315,6.0,13.0,46,0.00,,,0.00,WUHU216DAVISVP2,2013-08-18 06:10:00,
2013-08-17 23:11:00,78.9,56.4,29.80,NW,324,6.0,12.0,46,0.00,,,0.00,WUHU216DAVISVP2,2013-08-18 06:11:00,
2013-08-17 23:15:00,78.9,56.4,29.80,NW,315,5.0,12.0,46,0.00,,,0.00,WUHU216DAVISVP2,2013-08-18 06:15:00,
2013-08-17 23:16:00,78.8,56.3,29.80,NNW,333,4.0,9.0,46,0.00,,,0.00,WUHU216DAVISVP2,2013-08-18 06:16:00,
2013-08-17 23:20:00,78.7,56.2,29.80,NNW,338,5.0,12.0,46,0.00,,,0.00,WUHU216DAVISVP2,2013-08-18 06:20:00,
2013-08-17 23:21:00,78.6,56.7,29.80,NNW,338,6.0,9.0,47,0.00,,,0.00,WUHU216DAVISVP2,2013-08-18 06:21:00,
2013-08-17 23:25:00,78.4,56.5,29.80,NNW,338,5.0,12.0,47,0.00,,,0.00,WUHU216DAVISVP2,2013-08-18 06:25:00,
2013-08-17 23:26:00,78.3,56.5,29.81,NW,315,7.0,9.0,47,0.00,,,0.00,WUHU216DAVISVP2,2013-08-18 06:26:00,
2013-08-17 23:30:00,78.1,56.8,29.80,NNW,338,4.0,10.0,48,0.00,,,0.00,WUHU216DAVISVP2,2013-08-18 06:30:00,
2013-08-17 23:31:00,77.9,56.7,29.81,NNW,338,7.0,10.0,48,0.00,,,0.00,WUHU216DAVISVP2,2013-08-18 06:31:00,
2013-08-17 23:35:00,77.7,56.4,29.81,NNW,338,5.0,10.0,48,0.00,,,0.00,WUHU216DAVISVP2,2013-08-18 06:35:00,
2013-08-17 23:36:00,77.5,56.9,29.80,NNW,343,7.0,10.0,49,0.00,,,0.00,WUHU216DAVISVP2,2013-08-18 06:36:00,
2013-08-17 23:40:00,77.4,56.7,29.80,NNW,338,4.0,10.0,49,0.00,,,0.00,WUHU216DAVISVP2,2013-08-18 06:40:00,
2013-08-17 23:41:00,77.2,56.6,29.80,NNW,344,6.0,9.0,49,0.00,,,0.00,WUHU216DAVISVP2,2013-08-18 06:41:00,
2013-08-17 23:45:00,77.1,57.0,29.80,NNW,338,5.0,10.0,50,0.00,,,0.00,WUHU216DAVISVP2,2013-08-18 06:45:00,
2013-08-17 23:46:00,76.9,56.8,29.80,NNW,330,6.0,8.0,50,0.00,,,0.00,WUHU216DAVISVP2,2013-08-18 06:46:00,
2013-08-17 23:50:00,76.8,56.8,29.80,NNW,338,5.0,9.0,50,0.00,,,0.00,WUHU216DAVISVP2,2013-08-18 06:50:00,
2013-08-17 23:51:00,76.6,56.7,29.80,NNW,338,6.0,8.0,50,0.00,,,0.00,WUHU216DAVISVP2,2013-08-18 06:51:00,
2013-08-17 23:55:00,76.5,56.5,29.80,NNW,338,4.0,9.0,50,0.00,,,0.00,WUHU216DAVISVP2,2013-08-18 06:55:00,
2013-08-17 23:56:00,76.4,57.0,29.80,NW,325,3.0,9.0,51,0.00,,,0.00,WUHU216DAVISVP2,2013-08-18 06:56:00,